Wetterdaten: Montag, 27.12.2021
Datum Zeit Temp. Aussen Temp. o. S. Temp +5cm Feuchte Auss Luftdruck Regen Sonnenschein Regendauer Solar Windben Empfang
27.12.2021 00:00 3,5 C 2,8 C 0,6 C 94 % 1003,7 hPa 0,0 l/m 0 min 0 min 0 W/m 19,3 km/h (3 Bft) 97,83 %
27.12.2021 00:02 3,5 C 2,8 C 0,6 C 94 % 1003,7 hPa 0,0 l/m 0 min 0 min 0 W/m 16,1 km/h (3 Bft) 100,00 %
27.12.2021 00:04 3,5 C 2,8 C 0,6 C 94 % 1003,7 hPa 0,0 l/m 0 min 0 min 0 W/m 22,5 km/h (4 Bft) 97,87 %
27.12.2021 00:08 3,5 C 2,8 C 0,6 C 94 % 1003,6 hPa 0,0 l/m 0 min 0 min 0 W/m 19,3 km/h (3 Bft) 98,94 %
27.12.2021 00:10 3,5 C 2,8 C 0,6 C 94 % 1003,7 hPa 0,0 l/m 0 min 0 min 0 W/m 16,1 km/h (3 Bft) 100,00 %
27.12.2021 00:12 3,5 C 2,8 C 0,6 C 94 % 1003,6 hPa 0,0 l/m 0 min 0 min 0 W/m 12,9 km/h (3 Bft) 97,83 %
27.12.2021 00:14 3,5 C 2,8 C 0,6 C 94 % 1003,6 hPa 0,0 l/m 0 min 0 min 0 W/m 12,9 km/h (3 Bft) 97,87 %
27.12.2021 00:16 3,5 C 2,8 C 0,6 C 94 % 1003,6 hPa 0,0 l/m 0 min 0 min 0 W/m 19,3 km/h (3 Bft) 95,74 %
27.12.2021 00:18 3,5 C 2,8 C 0,6 C 94 % 1003,6 hPa 0,0 l/m 0 min 0 min 0 W/m 16,1 km/h (3 Bft) 52,17 %
27.12.2021 00:20 3,5 C 2,8 C 0,6 C 94 % 1003,6 hPa 0,0 l/m 0 min 0 min 0 W/m 19,3 km/h (3 Bft) 97,87 %
27.12.2021 00:22 3,5 C 2,8 C 0,6 C 94 % 1003,5 hPa 0,0 l/m 0 min 0 min 0 W/m 16,1 km/h (3 Bft) 97,83 %
27.12.2021 00:24 3,5 C 2,8 C 0,6 C 94 % 1003,5 hPa 0,0 l/m 0 min 0 min 0 W/m 6,4 km/h (2 Bft) 97,87 %
27.12.2021 00:26 3,5 C 2,8 C 0,6 C 94 % 1003,5 hPa 0,0 l/m 0 min 0 min 0 W/m 12,9 km/h (3 Bft) 95,74 %
27.12.2021 00:28 3,6 C 2,8 C 0,6 C 94 % 1003,5 hPa 0,0 l/m 0 min 0 min 0 W/m 12,9 km/h (3 Bft) 95,74 %
27.12.2021 00:30 3,5 C 2,8 C 0,6 C 94 % 1003,5 hPa 0,0 l/m 0 min 0 min 0 W/m 16,1 km/h (3 Bft) 95,74 %
27.12.2021 00:32 3,5 C 2,8 C 0,6 C 94 % 1003,5 hPa 0,0 l/m 0 min 0 min 0 W/m 6,4 km/h (2 Bft) 93,62 %
27.12.2021 00:34 3,5 C 2,8 C 0,6 C 94 % 1003,5 hPa 0,0 l/m 0 min 0 min 0 W/m 6,4 km/h (2 Bft) 95,65 %
27.12.2021 00:36 3,6 C 2,8 C 0,6 C 94 % 1003,5 hPa 0,0 l/m 0 min 0 min 0 W/m 16,1 km/h (3 Bft) 93,62 %
27.12.2021 00:38 3,6 C 2,8 C 0,6 C 94 % 1003,5 hPa 0,0 l/m 0 min 0 min 0 W/m 19,3 km/h (3 Bft) 97,87 %
27.12.2021 00:40 3,6 C 2,8 C 0,6 C 94 % 1003,5 hPa 0,0 l/m 0 min 0 min 0 W/m 16,1 km/h (3 Bft) 95,74 %
27.12.2021 00:42 3,6 C 2,8 C 0,6 C 94 % 1003,5 hPa 0,0 l/m 0 min 0 min 0 W/m 12,9 km/h (3 Bft) 95,74 %
27.12.2021 00:44 3,6 C 2,8 C 0,6 C 94 % 1003,4 hPa 0,0 l/m 0 min 0 min 0 W/m 12,9 km/h (3 Bft) 97,87 %
27.12.2021 00:46 3,6 C 2,8 C 0,6 C 94 % 1003,4 hPa 0,0 l/m 0 min 0 min 0 W/m 16,1 km/h (3 Bft) 97,83 %
27.12.2021 00:48 3,6 C 2,8 C 0,6 C 94 % 1003,5 hPa 0,0 l/m 0 min 0 min 0 W/m 16,1 km/h (3 Bft) 97,87 %
27.12.2021 00:50 3,6 C 2,8 C 0,6 C 95 % 1003,5 hPa 0,0 l/m 0 min 0 min 0 W/m 12,9 km/h (3 Bft) 97,87 %
27.12.2021 00:52 3,6 C 2,8 C 0,6 C 95 % 1003,4 hPa 0,0 l/m 0 min 0 min 0 W/m 12,9 km/h (3 Bft) 97,87 %
27.12.2021 00:54 3,6 C 2,8 C 0,6 C 95 % 1003,4 hPa 0,0 l/m 0 min 0 min 0 W/m 12,9 km/h (3 Bft) 91,49 %
27.12.2021 00:56 3,6 C 2,8 C 0,6 C 95 % 1003,4 hPa 0,0 l/m 0 min 0 min 0 W/m 16,1 km/h (3 Bft) 97,87 %
27.12.2021 00:58 3,6 C 2,8 C 0,6 C 95 % 1003,4 hPa 0,0 l/m 0 min 0 min 0 W/m 9,7 km/h (2 Bft) 97,83 %
27.12.2021 01:00 3,5 C 2,8 C 0,6 C 95 % 1003,4 hPa 0,0 l/m 0 min 0 min 0 W/m 12,9 km/h (3 Bft) 97,87 %
27.12.2021 01:02 3,5 C 2,8 C 0,6 C 95 % 1003,3 hPa 0,0 l/m 0 min 0 min 0 W/m 12,9 km/h (3 Bft) 97,14 %
27.12.2021 01:04 3,5 C 2,8 C 0,6 C 95 % 1003,4 hPa 0,0 l/m 0 min 0 min 0 W/m 16,1 km/h (3 Bft) 95,74 %
27.12.2021 01:06 3,5 C 2,8 C 0,6 C 95 % 1003,3 hPa 0,0 l/m 0 min 0 min 0 W/m 16,1 km/h (3 Bft) 97,87 %
27.12.2021 01:08 3,5 C 2,8 C 0,6 C 95 % 1003,3 hPa 0,0 l/m 0 min 0 min 0 W/m 12,9 km/h (3 Bft) 97,87 %
27.12.2021 01:10 3,5 C 2,8 C 0,6 C 95 % 1003,3 hPa 0,2 l/m 0 min 0 min 0 W/m 6,4 km/h (2 Bft) 91,49 %
27.12.2021 01:12 3,5 C 2,8 C 0,6 C 95 % 1003,3 hPa 0,0 l/m 0 min 0 min 0 W/m 12,9 km/h (3 Bft) 95,65 %
27.12.2021 01:14 3,5 C 2,8 C 0,6 C 95 % 1003,3 hPa 0,0 l/m 0 min 0 min 0 W/m 12,9 km/h (3 Bft) 95,74 %
27.12.2021 01:16 3,5 C 2,8 C 0,6 C 95 % 1003,3 hPa 0,0 l/m 0 min 0 min 0 W/m 6,4 km/h (2 Bft) 93,62 %
27.12.2021 01:18 3,5 C 2,8 C 0,6 C 95 % 1003,3 hPa 0,0 l/m 0 min 0 min 0 W/m 12,9 km/h (3 Bft) 93,62 %
27.12.2021 01:20 3,5 C 2,8 C 0,6 C 95 % 1003,2 hPa 0,0 l/m 0 min 0 min 0 W/m 12,9 km/h (3 Bft) 97,87 %
27.12.2021 01:22 3,5 C 2,8 C 0,6 C 95 % 1003,3 hPa 0,0 l/m 0 min 0 min 0 W/m 9,7 km/h (2 Bft) 95,74 %
27.12.2021 01:24 3,5 C 2,8 C 0,6 C 95 % 1003,2 hPa 0,0 l/m 0 min 0 min 0 W/m 16,1 km/h (3 Bft) 100,00 %
27.12.2021 01:26 3,5 C 2,8 C 0,6 C 95 % 1003,2 hPa 0,0 l/m 0 min 0 min 0 W/m 16,1 km/h (3 Bft) 100,00 %
27.12.2021 01:28 3,5 C 2,8 C 0,6 C 96 % 1003,2 hPa 0,0 l/m 0 min 0 min 0 W/m 16,1 km/h (3 Bft) 95,74 %
27.12.2021 01:30 3,5 C 2,8 C 0,6 C 96 % 1003,2 hPa 0,0 l/m 0 min 0 min 0 W/m 19,3 km/h (3 Bft) 100,00 %
27.12.2021 01:32 3,5 C 2,8 C 0,6 C 96 % 1003,2 hPa 0,0 l/m 0 min 0 min 0 W/m 19,3 km/h (3 Bft) 95,74 %
27.12.2021 01:34 3,5 C 2,8 C 0,6 C 96 % 1003,2 hPa 0,0 l/m 0 min 0 min 0 W/m 6,4 km/h (2 Bft) 100,00 %
27.12.2021 01:36 3,5 C 2,8 C 0,6 C 96 % 1003,2 hPa 0,0 l/m 0 min 2 min 0 W/m 12,9 km/h (3 Bft) 95,65 %
27.12.2021 01:38 3,5 C 2,8 C 0,6 C 96 % 1003,1 hPa 0,0 l/m 0 min 2 min 0 W/m 12,9 km/h (3 Bft) 97,87 %
27.12.2021 01:40 3,5 C 2,8 C 0,6 C 96 % 1003,1 hPa 0,2 l/m 0 min 2 min 0 W/m 16,1 km/h (3 Bft) 97,87 %
27.12.2021 01:42 3,4 C 2,8 C 0,6 C 96 % 1003,0 hPa 0,0 l/m 0 min 2 min 0 W/m 16,1 km/h (3 Bft) 97,87 %
27.12.2021 01:44 3,4 C 2,8 C 0,6 C 96 % 1003,1 hPa 0,0 l/m 0 min 2 min 0 W/m 12,9 km/h (3 Bft) 97,87 %
27.12.2021 01:46 3,4 C 2,8 C 0,6 C 96 % 1003,0 hPa 0,0 l/m 0 min 2 min 0 W/m 16,1 km/h (3 Bft) 95,74 %
27.12.2021 01:48 3,4 C 2,8 C 0,6 C 96 % 1003,1 hPa 0,0 l/m 0 min 0 min 0 W/m 12,9 km/h (3 Bft) 95,65 %
27.12.2021 01:50 3,4 C 2,8 C 0,6 C 96 % 1003,0 hPa 0,0 l/m 0 min 0 min 0 W/m 12,9 km/h (3 Bft) 95,74 %
27.12.2021 01:52 3,4 C 2,8 C 0,6 C 96 % 1003,1 hPa 0,0 l/m 0 min 0 min 0 W/m 16,1 km/h (3 Bft) 100,00 %
27.12.2021 01:54 3,4 C 2,8 C 0,6 C 96 % 1003,1 hPa 0,0 l/m 0 min 0 min 0 W/m 16,1 km/h (3 Bft) 100,00 %
27.12.2021 01:56 3,4 C 2,8 C 0,6 C 96 % 1003,1 hPa 0,0 l/m 0 min 0 min 0 W/m 12,9 km/h (3 Bft) 100,00 %
27.12.2021 01:58 3,4 C 2,8 C 0,6 C 96 % 1003,0 hPa 0,0 l/m 0 min 0 min 0 W/m 22,5 km/h (4 Bft) 100,00 %
27.12.2021 02:00 3,4 C 2,8 C 0,6 C 96 % 1003,0 hPa 0,0 l/m 0 min 0 min 0 W/m 16,1 km/h (3 Bft) 95,65 %
27.12.2021 02:02 3,4 C 2,8 C 0,6 C 96 % 1003,0 hPa 0,0 l/m 0 min 0 min 0 W/m 12,9 km/h (3 Bft) 100,00 %
27.12.2021 02:04 3,4 C 2,8 C 0,6 C 96 % 1003,0 hPa 0,0 l/m 0 min 0 min 0 W/m 12,9 km/h (3 Bft) 100,00 %
27.12.2021 02:06 3,4 C 2,8 C 0,6 C 96 % 1002,9 hPa 0,0 l/m 0 min 0 min 0 W/m 9,7 km/h (2 Bft) 100,00 %
27.12.2021 02:08 3,4 C 2,8 C 0,6 C 96 % 1002,9 hPa 0,0 l/m 0 min 0 min 0 W/m 19,3 km/h (3 Bft) 100,00 %
27.12.2021 02:10 3,4 C 2,8 C 0,6 C 96 % 1002,9 hPa 0,0 l/m 0 min 0 min 0 W/m 12,9 km/h (3 Bft) 97,87 %
27.12.2021 02:12 3,4 C 2,8 C 0,6 C 96 % 1002,9 hPa 0,0 l/m 0 min 0 min 0 W/m 16,1 km/h (3 Bft) 95,65 %
27.12.2021 02:14 3,4 C 2,8 C 0,6 C 96 % 1002,9 hPa 0,0 l/m 0 min 0 min 0 W/m 12,9 km/h (3 Bft) 97,87 %
27.12.2021 02:16 3,4 C 2,8 C 0,6 C 96 % 1002,9 hPa 0,0 l/m 0 min 0 min 0 W/m 19,3 km/h (3 Bft) 97,87 %
27.12.2021 02:18 3,4 C 2,8 C 0,6 C 97 % 1002,9 hPa 0,0 l/m 0 min 0 min 0 W/m 16,1 km/h (3 Bft) 97,87 %
27.12.2021 02:20 3,4 C 2,8 C 0,6 C 97 % 1002,9 hPa 0,0 l/m 0 min 0 min 0 W/m 22,5 km/h (4 Bft) 97,87 %
27.12.2021 02:22 3,4 C 2,8 C 0,6 C 97 % 1002,9 hPa 0,0 l/m 0 min 0 min 0 W/m 19,3 km/h (3 Bft) 97,83 %
27.12.2021 02:24 3,4 C 2,8 C 0,6 C 97 % 1002,9 hPa 0,0 l/m 0 min 0 min 0 W/m 16,1 km/h (3 Bft) 97,87 %
27.12.2021 02:26 3,4 C 2,8 C 0,6 C 97 % 1002,9 hPa 0,0 l/m 0 min 0 min 0 W/m 16,1 km/h (3 Bft) 95,74 %
27.12.2021 02:28 3,4 C 2,8 C 0,6 C 97 % 1002,9 hPa 0,0 l/m 0 min 0 min 0 W/m 16,1 km/h (3 Bft) 97,87 %
27.12.2021 02:30 3,4 C 2,8 C 0,6 C 97 % 1002,9 hPa 0,0 l/m 0 min 2 min 0 W/m 16,1 km/h (3 Bft) 97,87 %
27.12.2021 02:32 3,4 C 2,8 C 0,6 C 97 % 1002,9 hPa 0,0 l/m 0 min 2 min 0 W/m 16,1 km/h (3 Bft) 97,87 %
27.12.2021 02:34 3,4 C 2,8 C 0,6 C 97 % 1002,9 hPa 0,0 l/m 0 min 2 min 0 W/m 22,5 km/h (4 Bft) 97,83 %
27.12.2021 02:36 3,4 C 2,8 C 0,6 C 97 % 1002,9 hPa 0,0 l/m 0 min 2 min 0 W/m 19,3 km/h (3 Bft) 97,87 %
27.12.2021 02:38 3,4 C 2,8 C 0,6 C 97 % 1002,9 hPa 0,0 l/m 0 min 2 min 0 W/m 16,1 km/h (3 Bft) 97,87 %
27.12.2021 02:40 3,4 C 2,8 C 1,1 C 97 % 1002,9 hPa 0,0 l/m 0 min 2 min 0 W/m 12,9 km/h (3 Bft) 100,00 %
27.12.2021 02:42 3,4 C 2,8 C 1,1 C 97 % 1002,9 hPa 0,0 l/m 0 min 2 min 0 W/m 12,9 km/h (3 Bft) 100,00 %
27.12.2021 02:44 3,4 C 2,8 C 1,1 C 97 % 1002,9 hPa 0,2 l/m 0 min 2 min 0 W/m 9,7 km/h (2 Bft) 100,00 %
27.12.2021 02:46 3,4 C 2,8 C 1,1 C 97 % 1002,9 hPa 0,0 l/m 0 min 2 min 0 W/m 16,1 km/h (3 Bft) 100,00 %
27.12.2021 02:48 3,4 C 2,8 C 1,1 C 97 % 1002,8 hPa 0,0 l/m 0 min 2 min 0 W/m 12,9 km/h (3 Bft) 97,87 %
27.12.2021 02:50 3,4 C 2,8 C 1,1 C 97 % 1002,8 hPa 0,0 l/m 0 min 2 min 0 W/m 19,3 km/h (3 Bft) 100,00 %
27.12.2021 02:52 3,4 C 2,8 C 1,1 C 97 % 1002,8 hPa 0,0 l/m 0 min 2 min 0 W/m 19,3 km/h (3 Bft) 100,00 %
27.12.2021 02:54 3,4 C 2,8 C 1,1 C 97 % 1002,7 hPa 0,0 l/m 0 min 2 min 0 W/m 12,9 km/h (3 Bft) 100,00 %
27.12.2021 02:56 3,4 C 2,8 C 1,1 C 97 % 1002,7 hPa 0,0 l/m 0 min 2 min 0 W/m 12,9 km/h (3 Bft) 100,00 %
27.12.2021 02:58 3,4 C 2,8 C 1,1 C 97 % 1002,6 hPa 0,0 l/m 0 min 2 min 0 W/m 16,1 km/h (3 Bft) 100,00 %
27.12.2021 03:00 3,4 C 2,8 C 1,1 C 97 % 1002,6 hPa 0,2 l/m 0 min 2 min 0 W/m 12,9 km/h (3 Bft) 97,87 %
27.12.2021 03:02 3,4 C 2,8 C 1,1 C 97 % 1002,7 hPa 0,0 l/m 0 min 2 min 0 W/m 9,7 km/h (2 Bft) 100,00 %
27.12.2021 03:04 3,4 C 2,8 C 1,1 C 97 % 1002,7 hPa 0,0 l/m 0 min 2 min 0 W/m 16,1 km/h (3 Bft) 100,00 %
27.12.2021 03:06 3,4 C 2,8 C 1,1 C 97 % 1002,7 hPa 0,0 l/m 0 min 2 min 0 W/m 12,9 km/h (3 Bft) 95,74 %
27.12.2021 03:08 3,4 C 2,8 C 1,1 C 97 % 1002,7 hPa 0,0 l/m 0 min 0 min 0 W/m 12,9 km/h (3 Bft) 100,00 %
27.12.2021 03:10 3,4 C 2,8 C 1,1 C 97 % 1002,7 hPa 0,0 l/m 0 min 2 min 0 W/m 9,7 km/h (2 Bft) 100,00 %
27.12.2021 03:12 3,4 C 2,8 C 1,1 C 97 % 1002,7 hPa 0,0 l/m 0 min 0 min 0 W/m 9,7 km/h (2 Bft) 100,00 %
27.12.2021 03:14 3,4 C 2,8 C 1,1 C 97 % 1002,7 hPa 0,0 l/m 0 min 0 min 0 W/m 16,1 km/h (3 Bft) 97,87 %
27.12.2021 03:16 3,4 C 2,8 C 1,1 C 97 % 1002,7 hPa 0,0 l/m 0 min 0 min 0 W/m 16,1 km/h (3 Bft) 100,00 %
27.12.2021 03:18 3,4 C 2,8 C 1,1 C 97 % 1002,7 hPa 0,0 l/m 0 min 0 min 0 W/m 16,1 km/h (3 Bft) 100,00 %
27.12.2021 03:20 3,4 C 2,8 C 1,1 C 97 % 1002,8 hPa 0,0 l/m 0 min 2 min 0 W/m 12,9 km/h (3 Bft) 97,83 %
27.12.2021 03:22 3,4 C 2,8 C 1,1 C 97 % 1002,8 hPa 0,0 l/m 0 min 2 min 0 W/m 12,9 km/h (3 Bft) 97,87 %
27.12.2021 03:24 3,4 C 2,8 C 1,1 C 97 % 1002,8 hPa 0,0 l/m 0 min 2 min 0 W/m 16,1 km/h (3 Bft) 97,87 %
27.12.2021 03:26 3,4 C 2,8 C 1,1 C 97 % 1002,7 hPa 0,0 l/m 0 min 2 min 0 W/m 16,1 km/h (3 Bft) 97,87 %
27.12.2021 03:28 3,4 C 2,8 C 1,1 C 98 % 1002,7 hPa 0,0 l/m 0 min 2 min 0 W/m 19,3 km/h (3 Bft) 97,87 %
27.12.2021 03:30 3,4 C 2,8 C 1,1 C 98 % 1002,6 hPa 0,0 l/m 0 min 2 min 0 W/m 16,1 km/h (3 Bft) 97,87 %
27.12.2021 03:32 3,4 C 2,8 C 1,1 C 98 % 1002,6 hPa 0,0 l/m 0 min 2 min 0 W/m 12,9 km/h (3 Bft) 95,65 %
27.12.2021 03:34 3,4 C 2,8 C 1,1 C 98 % 1002,5 hPa 0,0 l/m 0 min 2 min 0 W/m 16,1 km/h (3 Bft) 97,87 %
27.12.2021 03:36 3,4 C 2,8 C 1,1 C 98 % 1002,5 hPa 0,0 l/m 0 min 2 min 0 W/m 12,9 km/h (3 Bft) 93,62 %
27.12.2021 03:38 3,4 C 2,8 C 1,1 C 98 % 1002,5 hPa 0,0 l/m 0 min 2 min 0 W/m 12,9 km/h (3 Bft) 95,74 %
27.12.2021 03:40 3,4 C 2,8 C 1,1 C 98 % 1002,5 hPa 0,0 l/m 0 min 2 min 0 W/m 12,9 km/h (3 Bft) 95,74 %
27.12.2021 03:42 3,4 C 2,8 C 1,1 C 98 % 1002,5 hPa 0,0 l/m 0 min 2 min 0 W/m 12,9 km/h (3 Bft) 95,65 %
27.12.2021 03:44 3,5 C 2,8 C 1,1 C 98 % 1002,4 hPa 0,0 l/m 0 min 2 min 0 W/m 16,1 km/h (3 Bft) 93,62 %
27.12.2021 03:46 3,5 C 2,8 C 1,1 C 98 % 1002,5 hPa 0,0 l/m 0 min 2 min 0 W/m 12,9 km/h (3 Bft) 93,62 %
27.12.2021 03:48 3,5 C 2,8 C 1,1 C 98 % 1002,5 hPa 0,0 l/m 0 min 2 min 0 W/m 16,1 km/h (3 Bft) 93,62 %
27.12.2021 03:50 3,5 C 2,8 C 1,1 C 98 % 1002,4 hPa 0,0 l/m 0 min 2 min 0 W/m 6,4 km/h (2 Bft) 95,74 %
27.12.2021 03:52 3,5 C 2,8 C 1,1 C 98 % 1002,4 hPa 0,0 l/m 0 min 0 min 0 W/m 12,9 km/h (3 Bft) 91,49 %
27.12.2021 03:54 3,6 C 2,8 C 1,1 C 98 % 1002,5 hPa 0,0 l/m 0 min 0 min 0 W/m 16,1 km/h (3 Bft) 95,65 %
27.12.2021 03:56 3,5 C 2,8 C 1,1 C 98 % 1002,5 hPa 0,0 l/m 0 min 0 min 0 W/m 12,9 km/h (3 Bft) 95,74 %
27.12.2021 03:58 3,6 C 2,8 C 1,1 C 98 % 1002,5 hPa 0,0 l/m 0 min 0 min 0 W/m 16,1 km/h (3 Bft) 95,74 %
27.12.2021 04:00 3,6 C 2,8 C 1,1 C 98 % 1002,5 hPa 0,0 l/m 0 min 0 min 0 W/m 16,1 km/h (3 Bft) 95,74 %
27.12.2021 04:02 3,6 C 2,8 C 1,1 C 98 % 1002,5 hPa 0,0 l/m 0 min 0 min 0 W/m 16,1 km/h (3 Bft) 85,19 %
27.12.2021 04:04 3,6 C 2,8 C 1,1 C 98 % 1002,5 hPa 0,0 l/m 0 min 0 min 0 W/m 19,3 km/h (3 Bft) 93,62 %
27.12.2021 04:06 3,6 C 2,8 C 1,1 C 98 % 1002,4 hPa 0,0 l/m 0 min 0 min 0 W/m 12,9 km/h (3 Bft) 93,62 %
27.12.2021 04:08 3,6 C 2,8 C 1,1 C 98 % 1002,4 hPa 0,0 l/m 0 min 0 min 0 W/m 16,1 km/h (3 Bft) 93,62 %
27.12.2021 04:10 3,6 C 2,8 C 1,1 C 98 % 1002,4 hPa 0,0 l/m 0 min 0 min 0 W/m 16,1 km/h (3 Bft) 93,62 %
27.12.2021 04:12 3,6 C 2,8 C 1,1 C 98 % 1002,4 hPa 0,0 l/m 0 min 0 min 0 W/m 22,5 km/h (4 Bft) 93,48 %
27.12.2021 04:14 3,6 C 2,8 C 1,1 C 98 % 1002,3 hPa 0,0 l/m 0 min 0 min 0 W/m 16,1 km/h (3 Bft) 93,62 %
27.12.2021 04:16 3,6 C 2,8 C 1,1 C 98 % 1002,3 hPa 0,0 l/m 0 min 0 min 0 W/m 12,9 km/h (3 Bft) 93,62 %
27.12.2021 04:18 3,6 C 2,8 C 1,1 C 98 % 1002,2 hPa 0,0 l/m 0 min 0 min 0 W/m 16,1 km/h (3 Bft) 95,74 %
27.12.2021 04:20 3,6 C 2,8 C 1,1 C 98 % 1002,2 hPa 0,0 l/m 0 min 0 min 0 W/m 16,1 km/h (3 Bft) 97,87 %
27.12.2021 04:22 3,6 C 2,8 C 1,1 C 98 % 1002,2 hPa 0,0 l/m 0 min 0 min 0 W/m 12,9 km/h (3 Bft) 100,00 %
27.12.2021 04:24 3,6 C 2,8 C 1,1 C 98 % 1002,2 hPa 0,0 l/m 0 min 0 min 0 W/m 16,1 km/h (3 Bft) 97,87 %
27.12.2021 04:26 3,6 C 2,8 C 1,1 C 98 % 1002,2 hPa 0,0 l/m 0 min 0 min 0 W/m 12,9 km/h (3 Bft) 97,87 %
27.12.2021 04:28 3,6 C 2,8 C 1,1 C 98 % 1002,1 hPa 0,0 l/m 0 min 0 min 0 W/m 12,9 km/h (3 Bft) 97,87 %
27.12.2021 04:30 3,6 C 3,3 C 1,1 C 98 % 1002,2 hPa 0,0 l/m 0 min 0 min 0 W/m 16,1 km/h (3 Bft) 95,74 %
27.12.2021 04:32 3,6 C 3,3 C 1,1 C 98 % 1002,1 hPa 0,0 l/m 0 min 0 min 0 W/m 12,9 km/h (3 Bft) 97,87 %
27.12.2021 04:34 3,6 C 3,3 C 1,1 C 98 % 1002,2 hPa 0,0 l/m 0 min 0 min 0 W/m 12,9 km/h (3 Bft) 97,83 %
27.12.2021 04:36 3,6 C 3,3 C 1,1 C 98 % 1002,2 hPa 0,0 l/m 0 min 0 min 0 W/m 19,3 km/h (3 Bft) 97,87 %
27.12.2021 04:38 3,6 C 3,3 C 1,1 C 98 % 1002,2 hPa 0,0 l/m 0 min 0 min 0 W/m 19,3 km/h (3 Bft) 100,00 %
27.12.2021 04:40 3,6 C 3,3 C 1,1 C 98 % 1002,2 hPa 0,0 l/m 0 min 0 min 0 W/m 19,3 km/h (3 Bft) 100,00 %
27.12.2021 04:42 3,6 C 3,3 C 1,1 C 98 % 1002,2 hPa 0,0 l/m 0 min 0 min 0 W/m 19,3 km/h (3 Bft) 100,00 %
27.12.2021 04:44 3,6 C 3,3 C 1,1 C 98 % 1002,2 hPa 0,0 l/m 0 min 0 min 0 W/m 16,1 km/h (3 Bft) 100,00 %
27.12.2021 04:46 3,6 C 3,3 C 1,1 C 98 % 1002,2 hPa 0,0 l/m 0 min 0 min 0 W/m 12,9 km/h (3 Bft) 100,00 %
27.12.2021 04:48 3,6 C 3,3 C 1,1 C 98 % 1002,2 hPa 0,0 l/m 0 min 0 min 0 W/m 16,1 km/h (3 Bft) 100,00 %
27.12.2021 04:50 3,6 C 3,3 C 1,1 C 98 % 1002,2 hPa 0,0 l/m 0 min 0 min 0 W/m 12,9 km/h (3 Bft) 100,00 %
27.12.2021 04:52 3,6 C 3,3 C 1,1 C 98 % 1002,2 hPa 0,0 l/m 0 min 0 min 0 W/m 22,5 km/h (4 Bft) 100,00 %
27.12.2021 04:54 3,6 C 3,3 C 1,1 C 98 % 1002,2 hPa 0,0 l/m 0 min 0 min 0 W/m 16,1 km/h (3 Bft) 100,00 %
27.12.2021 04:56 3,6 C 3,3 C 1,7 C 98 % 1002,2 hPa 0,0 l/m 0 min 0 min 0 W/m 12,9 km/h (3 Bft) 100,00 %
27.12.2021 04:58 3,6 C 3,3 C 1,7 C 98 % 1002,1 hPa 0,0 l/m 0 min 0 min 0 W/m 6,4 km/h (2 Bft) 100,00 %
27.12.2021 05:00 3,6 C 3,3 C 1,7 C 98 % 1002,2 hPa 0,0 l/m 0 min 0 min 0 W/m 16,1 km/h (3 Bft) 97,87 %
27.12.2021 05:02 3,7 C 3,3 C 1,7 C 98 % 1002,1 hPa 0,0 l/m 0 min 0 min 0 W/m 16,1 km/h (3 Bft) 97,87 %
27.12.2021 05:04 3,7 C 3,3 C 1,7 C 98 % 1002,2 hPa 0,0 l/m 0 min 0 min 0 W/m 16,1 km/h (3 Bft) 100,00 %
27.12.2021 05:06 3,7 C 3,3 C 1,7 C 98 % 1002,1 hPa 0,0 l/m 0 min 0 min 0 W/m 12,9 km/h (3 Bft) 100,00 %
27.12.2021 05:08 3,7 C 3,3 C 1,7 C 98 % 1002,1 hPa 0,0 l/m 0 min 0 min 0 W/m 16,1 km/h (3 Bft) 85,11 %
27.12.2021 05:10 3,7 C 3,3 C 1,7 C 98 % 1002,1 hPa 0,0 l/m 0 min 0 min 0 W/m 16,1 km/h (3 Bft) 59,38 %
27.12.2021 05:12 3,7 C 3,3 C 1,7 C 98 % 1002,2 hPa 0,0 l/m 0 min 0 min 0 W/m 12,9 km/h (3 Bft) 100,00 %
27.12.2021 05:14 3,7 C 3,3 C 1,7 C 98 % 1002,1 hPa 0,0 l/m 0 min 0 min 0 W/m 12,9 km/h (3 Bft) 100,00 %
27.12.2021 05:16 3,7 C 3,3 C 1,7 C 98 % 1002,0 hPa 0,0 l/m 0 min 0 min 0 W/m 16,1 km/h (3 Bft) 100,00 %
27.12.2021 05:18 3,7 C 3,3 C 1,7 C 98 % 1002,0 hPa 0,0 l/m 0 min 0 min 0 W/m 19,3 km/h (3 Bft) 100,00 %
27.12.2021 05:20 3,7 C 3,3 C 1,7 C 98 % 1002,0 hPa 0,0 l/m 0 min 0 min 0 W/m 16,1 km/h (3 Bft) 100,00 %
27.12.2021 05:22 3,7 C 3,3 C 1,7 C 98 % 1001,9 hPa 0,0 l/m 0 min 0 min 0 W/m 12,9 km/h (3 Bft) 100,00 %
27.12.2021 05:24 3,7 C 3,3 C 1,7 C 98 % 1001,9 hPa 0,0 l/m 0 min 0 min 0 W/m 12,9 km/h (3 Bft) 100,00 %
27.12.2021 05:26 3,7 C 3,3 C 1,7 C 98 % 1001,8 hPa 0,0 l/m 0 min 0 min 0 W/m 12,9 km/h (3 Bft) 100,00 %
27.12.2021 05:28 3,8 C 3,3 C 1,7 C 98 % 1001,8 hPa 0,0 l/m 0 min 0 min 0 W/m 16,1 km/h (3 Bft) 100,00 %
27.12.2021 05:30 3,7 C 3,3 C 1,7 C 98 % 1001,8 hPa 0,0 l/m 0 min 0 min 0 W/m 12,9 km/h (3 Bft) 100,00 %
27.12.2021 05:32 3,8 C 3,3 C 1,7 C 98 % 1001,8 hPa 0,0 l/m 0 min 0 min 0 W/m 6,4 km/h (2 Bft) 100,00 %
27.12.2021 05:34 3,8 C 3,3 C 1,7 C 98 % 1001,8 hPa 0,0 l/m 0 min 0 min 0 W/m 16,1 km/h (3 Bft) 100,00 %
27.12.2021 05:36 3,8 C 3,3 C 1,7 C 98 % 1001,8 hPa 0,0 l/m 0 min 0 min 0 W/m 12,9 km/h (3 Bft) 100,00 %
27.12.2021 05:38 3,8 C 3,3 C 1,7 C 98 % 1001,8 hPa 0,2 l/m 0 min 0 min 0 W/m 19,3 km/h (3 Bft) 100,00 %
27.12.2021 05:40 3,8 C 3,3 C 1,7 C 98 % 1001,8 hPa 0,0 l/m 0 min 0 min 0 W/m 19,3 km/h (3 Bft) 100,00 %
27.12.2021 05:42 3,8 C 3,3 C 1,7 C 98 % 1001,7 hPa 0,0 l/m 0 min 0 min 0 W/m 16,1 km/h (3 Bft) 100,00 %
27.12.2021 05:44 3,8 C 3,3 C 1,7 C 98 % 1001,8 hPa 0,0 l/m 0 min 0 min 0 W/m 16,1 km/h (3 Bft) 100,00 %
27.12.2021 05:46 3,8 C 3,3 C 1,7 C 98 % 1001,8 hPa 0,0 l/m 0 min 0 min 0 W/m 12,9 km/h (3 Bft) 97,87 %
27.12.2021 05:48 3,8 C 3,3 C 1,7 C 98 % 1001,8 hPa 0,0 l/m 0 min 0 min 0 W/m 9,7 km/h (2 Bft) 97,87 %
27.12.2021 05:50 3,8 C 3,3 C 1,7 C 98 % 1001,8 hPa 0,0 l/m 0 min 0 min 0 W/m 12,9 km/h (3 Bft) 100,00 %
27.12.2021 05:52 3,8 C 3,3 C 1,7 C 98 % 1001,8 hPa 0,0 l/m 0 min 0 min 0 W/m 16,1 km/h (3 Bft) 100,00 %
27.12.2021 05:54 3,8 C 3,3 C 1,7 C 98 % 1001,7 hPa 0,0 l/m 0 min 0 min 0 W/m 12,9 km/h (3 Bft) 97,87 %
27.12.2021 05:56 3,8 C 3,3 C 1,7 C 98 % 1001,7 hPa 0,0 l/m 0 min 0 min 0 W/m 16,1 km/h (3 Bft) 97,87 %
27.12.2021 05:58 3,8 C 3,3 C 1,7 C 98 % 1001,7 hPa 0,0 l/m 0 min 0 min 0 W/m 12,9 km/h (3 Bft) 95,65 %
27.12.2021 06:00 3,8 C 3,3 C 1,7 C 98 % 1001,7 hPa 0,0 l/m 0 min 0 min 0 W/m 12,9 km/h (3 Bft) 98,00 %
27.12.2021 06:02 3,8 C 3,3 C 1,7 C 98 % 1001,7 hPa 0,0 l/m 0 min 0 min 0 W/m 12,9 km/h (3 Bft) 97,87 %
27.12.2021 06:04 3,8 C 3,3 C 1,7 C 98 % 1001,6 hPa 0,0 l/m 0 min 0 min 0 W/m 12,9 km/h (3 Bft) 95,74 %
27.12.2021 06:08 3,8 C 3,3 C 1,7 C 98 % 1001,6 hPa 0,0 l/m 0 min 0 min 0 W/m 12,9 km/h (3 Bft) 95,70 %
27.12.2021 06:10 3,8 C 3,3 C 1,7 C 98 % 1001,6 hPa 0,0 l/m 0 min 0 min 0 W/m 16,1 km/h (3 Bft) 93,88 %
27.12.2021 06:12 3,8 C 3,3 C 1,7 C 98 % 1001,6 hPa 0,0 l/m 0 min 0 min 0 W/m 12,9 km/h (3 Bft) 95,65 %
27.12.2021 06:14 3,8 C 3,3 C 1,7 C 98 % 1001,5 hPa 0,0 l/m 0 min 0 min 0 W/m 12,9 km/h (3 Bft) 95,74 %
27.12.2021 06:16 3,8 C 3,3 C 1,7 C 98 % 1001,6 hPa 0,0 l/m 0 min 0 min 0 W/m 9,7 km/h (2 Bft) 95,74 %
27.12.2021 06:18 3,9 C 3,3 C 1,7 C 98 % 1001,6 hPa 0,0 l/m 0 min 0 min 0 W/m 12,9 km/h (3 Bft) 95,74 %
27.12.2021 06:20 3,9 C 3,3 C 1,7 C 98 % 1001,6 hPa 0,0 l/m 0 min 0 min 0 W/m 6,4 km/h (2 Bft) 95,83 %
27.12.2021 06:22 3,9 C 3,3 C 1,7 C 98 % 1001,6 hPa 0,0 l/m 0 min 0 min 0 W/m 12,9 km/h (3 Bft) 93,62 %
27.12.2021 06:24 3,9 C 3,3 C 1,7 C 98 % 1001,6 hPa 0,0 l/m 0 min 0 min 0 W/m 16,1 km/h (3 Bft) 94,59 %
27.12.2021 06:26 3,9 C 3,3 C 1,7 C 98 % 1001,6 hPa 0,0 l/m 0 min 0 min 0 W/m 12,9 km/h (3 Bft) 95,65 %
27.12.2021 06:28 3,9 C 3,3 C 1,7 C 98 % 1001,6 hPa 0,0 l/m 0 min 0 min 0 W/m 16,1 km/h (3 Bft) 93,62 %
27.12.2021 06:33 3,9 C 3,3 C 1,7 C 98 % 1001,4 hPa 0,0 l/m 0 min 0 min 0 W/m 16,1 km/h (3 Bft) 94,83 %
27.12.2021 06:34 3,9 C 3,3 C 1,7 C 98 % 1001,4 hPa 0,0 l/m 0 min 0 min 0 W/m 16,1 km/h (3 Bft) 95,83 %
27.12.2021 06:36 3,9 C 3,3 C 1,7 C 98 % 1001,4 hPa 0,0 l/m 0 min 0 min 0 W/m 16,1 km/h (3 Bft) 95,74 %
27.12.2021 06:38 3,9 C 3,3 C 1,7 C 98 % 1001,4 hPa 0,0 l/m 0 min 0 min 0 W/m 12,9 km/h (3 Bft) 95,65 %
27.12.2021 06:40 3,9 C 3,3 C 1,7 C 98 % 1001,4 hPa 0,0 l/m 0 min 0 min 0 W/m 12,9 km/h (3 Bft) 93,62 %
27.12.2021 06:42 3,9 C 3,3 C 1,7 C 98 % 1001,4 hPa 0,0 l/m 0 min 0 min 0 W/m 19,3 km/h (3 Bft) 95,74 %
27.12.2021 06:44 3,9 C 3,3 C 1,7 C 98 % 1001,4 hPa 0,0 l/m 0 min 0 min 0 W/m 9,7 km/h (2 Bft) 93,62 %
27.12.2021 06:46 3,9 C 3,3 C 1,7 C 98 % 1001,4 hPa 0,0 l/m 0 min 0 min 0 W/m 12,9 km/h (3 Bft) 97,87 %
27.12.2021 06:48 3,9 C 3,3 C 1,7 C 98 % 1001,3 hPa 0,0 l/m 0 min 0 min 0 W/m 12,9 km/h (3 Bft) 100,00 %
27.12.2021 06:50 3,9 C 3,3 C 1,7 C 98 % 1001,3 hPa 0,0 l/m 0 min 0 min 0 W/m 12,9 km/h (3 Bft) 97,87 %
27.12.2021 06:52 3,9 C 3,3 C 1,7 C 98 % 1001,3 hPa 0,0 l/m 0 min 0 min 0 W/m 12,9 km/h (3 Bft) 98,18 %
27.12.2021 06:54 3,9 C 3,3 C 1,7 C 98 % 1001,3 hPa 0,0 l/m 0 min 0 min 0 W/m 16,1 km/h (3 Bft) 97,83 %
27.12.2021 06:56 3,9 C 3,3 C 1,7 C 98 % 1001,4 hPa 0,0 l/m 0 min 0 min 0 W/m 19,3 km/h (3 Bft) 95,74 %
27.12.2021 06:58 4,0 C 3,3 C 1,7 C 98 % 1001,3 hPa 0,0 l/m 0 min 0 min 0 W/m 16,1 km/h (3 Bft) 96,00 %
27.12.2021 07:00 4,0 C 3,3 C 1,7 C 98 % 1001,3 hPa 0,0 l/m 0 min 0 min 0 W/m 12,9 km/h (3 Bft) 97,87 %
27.12.2021 07:02 3,9 C 3,3 C 1,7 C 98 % 1001,4 hPa 0,0 l/m 0 min 0 min 0 W/m 19,3 km/h (3 Bft) 97,22 %
27.12.2021 07:04 4,0 C 3,3 C 1,7 C 98 % 1001,4 hPa 0,0 l/m 0 min 0 min 0 W/m 12,9 km/h (3 Bft) 97,87 %
27.12.2021 07:06 4,0 C 3,3 C 1,7 C 98 % 1001,4 hPa 0,0 l/m 0 min 0 min 0 W/m 16,1 km/h (3 Bft) 98,15 %
27.12.2021 07:08 4,0 C 3,3 C 1,7 C 98 % 1001,4 hPa 0,0 l/m 0 min 0 min 0 W/m 12,9 km/h (3 Bft) 95,74 %
27.12.2021 07:10 4,0 C 3,3 C 1,7 C 98 % 1001,4 hPa 0,0 l/m 0 min 0 min 0 W/m 9,7 km/h (2 Bft) 51,28 %
27.12.2021 07:12 4,0 C 3,3 C 2,2 C 98 % 1001,3 hPa 0,0 l/m 0 min 0 min 0 W/m 16,1 km/h (3 Bft) 95,74 %
27.12.2021 07:14 4,0 C 3,3 C 2,2 C 98 % 1001,4 hPa 0,0 l/m 0 min 0 min 0 W/m 19,3 km/h (3 Bft) 97,87 %
27.12.2021 07:16 4,0 C 3,3 C 2,2 C 99 % 1001,3 hPa 0,0 l/m 0 min 0 min 0 W/m 16,1 km/h (3 Bft) 93,62 %
27.12.2021 07:18 4,0 C 3,3 C 2,2 C 99 % 1001,3 hPa 0,0 l/m 0 min 0 min 0 W/m 16,1 km/h (3 Bft) 97,83 %
27.12.2021 07:20 4,0 C 3,3 C 2,2 C 99 % 1001,3 hPa 0,0 l/m 0 min 0 min 0 W/m 12,9 km/h (3 Bft) 100,00 %
27.12.2021 07:22 4,1 C 3,3 C 2,2 C 99 % 1001,3 hPa 0,0 l/m 0 min 0 min 0 W/m 12,9 km/h (3 Bft) 100,00 %
27.12.2021 07:24 4,1 C 3,3 C 2,2 C 99 % 1001,3 hPa 0,0 l/m 0 min 0 min 0 W/m 12,9 km/h (3 Bft) 97,87 %
27.12.2021 07:26 4,1 C 3,3 C 2,2 C 99 % 1001,3 hPa 0,0 l/m 0 min 0 min 0 W/m 12,9 km/h (3 Bft) 97,87 %
27.12.2021 07:28 4,1 C 3,3 C 2,2 C 99 % 1001,3 hPa 0,0 l/m 0 min 0 min 0 W/m 16,1 km/h (3 Bft) 100,00 %
27.12.2021 07:30 4,1 C 3,9 C 2,2 C 99 % 1001,3 hPa 0,0 l/m 0 min 0 min 0 W/m 19,3 km/h (3 Bft) 97,83 %
27.12.2021 07:32 4,1 C 3,9 C 2,2 C 99 % 1001,3 hPa 0,0 l/m 0 min 0 min 0 W/m 16,1 km/h (3 Bft) 100,00 %
27.12.2021 07:34 4,1 C 3,9 C 2,2 C 99 % 1001,3 hPa 0,0 l/m 0 min 0 min 0 W/m 16,1 km/h (3 Bft) 97,87 %
27.12.2021 07:36 4,1 C 3,9 C 2,2 C 99 % 1001,3 hPa 0,0 l/m 0 min 0 min 0 W/m 12,9 km/h (3 Bft) 100,00 %
27.12.2021 07:38 4,1 C 3,9 C 2,2 C 99 % 1001,3 hPa 0,0 l/m 0 min 0 min 0 W/m 6,4 km/h (2 Bft) 100,00 %
27.12.2021 07:40 4,1 C 3,9 C 2,2 C 99 % 1001,3 hPa 0,0 l/m 0 min 0 min 0 W/m 12,9 km/h (3 Bft) 100,00 %
27.12.2021 07:42 4,1 C 3,9 C 2,2 C 99 % 1001,4 hPa 0,0 l/m 0 min 0 min 0 W/m 12,9 km/h (3 Bft) 100,00 %
27.12.2021 07:44 4,1 C 3,9 C 2,2 C 99 % 1001,3 hPa 0,0 l/m 0 min 0 min 0 W/m 12,9 km/h (3 Bft) 97,87 %
27.12.2021 07:46 4,1 C 3,9 C 2,2 C 99 % 1001,4 hPa 0,0 l/m 0 min 0 min 0 W/m 16,1 km/h (3 Bft) 100,00 %
27.12.2021 07:48 4,1 C 3,9 C 2,2 C 99 % 1001,3 hPa 0,0 l/m 0 min 0 min 0 W/m 16,1 km/h (3 Bft) 97,87 %
27.12.2021 07:50 4,1 C 3,9 C 2,2 C 99 % 1001,2 hPa 0,0 l/m 0 min 0 min 0 W/m 12,9 km/h (3 Bft) 97,87 %
27.12.2021 07:52 4,1 C 3,9 C 2,2 C 99 % 1001,2 hPa 0,0 l/m 0 min 0 min 0 W/m 12,9 km/h (3 Bft) 100,00 %
27.12.2021 07:54 4,1 C 3,9 C 2,2 C 99 % 1001,2 hPa 0,0 l/m 0 min 0 min 0 W/m 12,9 km/h (3 Bft) 97,87 %
27.12.2021 07:56 4,2 C 3,9 C 2,2 C 99 % 1001,2 hPa 0,0 l/m 0 min 0 min 0 W/m 6,4 km/h (2 Bft) 97,87 %
27.12.2021 07:58 4,2 C 3,9 C 2,2 C 99 % 1001,2 hPa 0,0 l/m 0 min 0 min 0 W/m 12,9 km/h (3 Bft) 97,87 %
27.12.2021 08:00 4,2 C 3,9 C 2,2 C 99 % 1001,3 hPa 0,0 l/m 0 min 0 min 0 W/m 9,7 km/h (2 Bft) 95,74 %
27.12.2021 08:02 4,2 C 3,9 C 2,2 C 99 % 1001,3 hPa 0,0 l/m 0 min 0 min 0 W/m 12,9 km/h (3 Bft) 97,87 %
27.12.2021 08:04 4,2 C 3,9 C 2,2 C 99 % 1001,3 hPa 0,0 l/m 0 min 0 min 0 W/m 16,1 km/h (3 Bft) 95,74 %
27.12.2021 08:06 4,2 C 3,9 C 2,2 C 99 % 1001,2 hPa 0,0 l/m 0 min 0 min 0 W/m 19,3 km/h (3 Bft) 97,87 %
27.12.2021 08:08 4,2 C 3,9 C 2,2 C 99 % 1001,2 hPa 0,0 l/m 0 min 0 min 0 W/m 19,3 km/h (3 Bft) 97,87 %
27.12.2021 08:10 4,2 C 3,9 C 2,2 C 99 % 1001,2 hPa 0,0 l/m 0 min 0 min 0 W/m 16,1 km/h (3 Bft) 63,83 %
27.12.2021 08:12 4,2 C 3,9 C 2,2 C 99 % 1001,2 hPa 0,0 l/m 0 min 0 min 0 W/m 16,1 km/h (3 Bft) 87,23 %
27.12.2021 08:14 4,2 C 3,9 C 2,2 C 99 % 1001,1 hPa 0,0 l/m 0 min 0 min 0 W/m 19,3 km/h (3 Bft) 97,87 %
27.12.2021 08:16 4,2 C 3,9 C 2,2 C 99 % 1001,1 hPa 0,0 l/m 0 min 0 min 0 W/m 16,1 km/h (3 Bft) 93,48 %
27.12.2021 08:18 4,3 C 3,9 C 2,2 C 99 % 1001,2 hPa 0,0 l/m 0 min 0 min 0 W/m 9,7 km/h (2 Bft) 97,87 %
27.12.2021 08:20 4,3 C 3,9 C 2,2 C 99 % 1001,2 hPa 0,0 l/m 0 min 0 min 0 W/m 16,1 km/h (3 Bft) 97,62 %
27.12.2021 08:22 4,3 C 3,9 C 2,2 C 99 % 1001,2 hPa 0,0 l/m 0 min 0 min 0 W/m 6,4 km/h (2 Bft) 98,00 %
27.12.2021 08:24 4,3 C 3,9 C 2,2 C 99 % 1001,2 hPa 0,0 l/m 0 min 0 min 0 W/m 12,9 km/h (3 Bft) 100,00 %
27.12.2021 08:26 4,3 C 3,9 C 2,2 C 99 % 1001,2 hPa 0,0 l/m 0 min 0 min 0 W/m 12,9 km/h (3 Bft) 97,92 %
27.12.2021 08:28 4,3 C 3,9 C 2,2 C 99 % 1001,2 hPa 0,0 l/m 0 min 0 min 0 W/m 12,9 km/h (3 Bft) 100,00 %
27.12.2021 08:30 4,3 C 3,9 C 2,2 C 99 % 1001,1 hPa 0,0 l/m 0 min 0 min 0 W/m 12,9 km/h (3 Bft) 97,87 %
27.12.2021 08:32 4,3 C 3,9 C 2,2 C 99 % 1001,0 hPa 0,0 l/m 0 min 0 min 0 W/m 16,1 km/h (3 Bft) 95,24 %
27.12.2021 08:34 4,3 C 3,9 C 2,2 C 99 % 1001,0 hPa 0,0 l/m 0 min 0 min 0 W/m 16,1 km/h (3 Bft) 98,00 %
27.12.2021 08:36 4,3 C 3,9 C 2,2 C 99 % 1001,0 hPa 0,0 l/m 0 min 0 min 0 W/m 16,1 km/h (3 Bft) 95,92 %
27.12.2021 08:38 4,3 C 3,9 C 2,2 C 99 % 1001,0 hPa 0,0 l/m 0 min 0 min 0 W/m 16,1 km/h (3 Bft) 97,83 %
27.12.2021 08:40 4,3 C 3,9 C 2,2 C 99 % 1001,0 hPa 0,0 l/m 0 min 0 min 0 W/m 6,4 km/h (2 Bft) 97,87 %
27.12.2021 08:42 4,3 C 3,9 C 2,2 C 99 % 1001,1 hPa 0,0 l/m 0 min 0 min 0 W/m 12,9 km/h (3 Bft) 95,74 %
27.12.2021 08:43 4,3 C 3,9 C 2,2 C 99 % 1001,1 hPa 0,0 l/m 0 min 0 min 5 W/m 12,9 km/h (3 Bft) 97,62 %
27.12.2021 08:46 4,3 C 3,9 C 2,2 C 99 % 1001,2 hPa 0,0 l/m 0 min 0 min 5 W/m 12,9 km/h (3 Bft) 98,00 %
27.12.2021 08:48 4,4 C 3,9 C 2,2 C 99 % 1001,2 hPa 0,0 l/m 0 min 0 min 7 W/m 12,9 km/h (3 Bft) 95,74 %
27.12.2021 08:50 4,4 C 3,9 C 2,2 C 99 % 1001,1 hPa 0,0 l/m 0 min 0 min 9 W/m 16,1 km/h (3 Bft) 97,87 %
27.12.2021 08:52 4,4 C 3,9 C 2,2 C 99 % 1001,0 hPa 0,0 l/m 0 min 0 min 11 W/m 16,1 km/h (3 Bft) 97,87 %
27.12.2021 08:54 4,4 C 3,9 C 2,2 C 99 % 1001,0 hPa 0,0 l/m 0 min 0 min 13 W/m 16,1 km/h (3 Bft) 97,83 %
27.12.2021 08:56 4,4 C 3,9 C 2,2 C 99 % 1001,0 hPa 0,0 l/m 0 min 0 min 14 W/m 16,1 km/h (3 Bft) 93,62 %
27.12.2021 08:58 4,4 C 3,9 C 2,2 C 99 % 1001,0 hPa 0,0 l/m 0 min 0 min 16 W/m 16,1 km/h (3 Bft) 95,74 %
27.12.2021 09:00 4,4 C 3,9 C 2,2 C 99 % 1000,9 hPa 0,0 l/m 0 min 0 min 17 W/m 12,9 km/h (3 Bft) 95,74 %
27.12.2021 09:02 4,4 C 3,9 C 2,2 C 99 % 1000,9 hPa 0,0 l/m 0 min 0 min 19 W/m 12,9 km/h (3 Bft) 97,67 %
27.12.2021 09:04 4,4 C 3,9 C 2,2 C 99 % 1000,9 hPa 0,0 l/m 0 min 0 min 22 W/m 12,9 km/h (3 Bft) 96,00 %
27.12.2021 09:06 4,4 C 3,9 C 2,2 C 99 % 1000,9 hPa 0,0 l/m 0 min 0 min 24 W/m 12,9 km/h (3 Bft) 97,87 %
27.12.2021 09:08 4,4 C 3,9 C 2,2 C 99 % 1000,9 hPa 0,0 l/m 0 min 0 min 22 W/m 12,9 km/h (3 Bft) 97,87 %
27.12.2021 09:10 4,4 C 3,9 C 2,2 C 99 % 1000,8 hPa 0,0 l/m 0 min 0 min 23 W/m 12,9 km/h (3 Bft) 97,87 %
27.12.2021 09:12 4,4 C 3,9 C 2,2 C 99 % 1000,8 hPa 0,0 l/m 0 min 0 min 25 W/m 16,1 km/h (3 Bft) 80,85 %
27.12.2021 09:14 4,4 C 3,9 C 2,2 C 99 % 1000,9 hPa 0,0 l/m 0 min 0 min 25 W/m 12,9 km/h (3 Bft) 69,23 %
27.12.2021 09:16 4,4 C 3,9 C 2,2 C 99 % 1000,9 hPa 0,0 l/m 0 min 0 min 23 W/m 12,9 km/h (3 Bft) 97,87 %
27.12.2021 09:18 4,4 C 3,9 C 2,2 C 99 % 1000,9 hPa 0,0 l/m 0 min 0 min 24 W/m 19,3 km/h (3 Bft) 100,00 %
27.12.2021 09:20 4,4 C 3,9 C 2,2 C 99 % 1000,9 hPa 0,0 l/m 0 min 0 min 26 W/m 12,9 km/h (3 Bft) 97,87 %
27.12.2021 09:22 4,4 C 3,9 C 2,2 C 99 % 1000,9 hPa 0,0 l/m 0 min 0 min 26 W/m 9,7 km/h (2 Bft) 100,00 %
27.12.2021 09:24 4,4 C 3,9 C 2,2 C 99 % 1000,9 hPa 0,0 l/m 0 min 0 min 26 W/m 12,9 km/h (3 Bft) 100,00 %
27.12.2021 09:26 4,4 C 3,9 C 2,2 C 99 % 1000,9 hPa 0,0 l/m 0 min 0 min 29 W/m 16,1 km/h (3 Bft) 100,00 %
27.12.2021 09:28 4,4 C 3,9 C 2,2 C 99 % 1000,8 hPa 0,0 l/m 0 min 0 min 30 W/m 16,1 km/h (3 Bft) 100,00 %
27.12.2021 09:30 4,4 C 3,9 C 2,2 C 99 % 1000,9 hPa 0,0 l/m 0 min 0 min 32 W/m 12,9 km/h (3 Bft) 97,87 %
27.12.2021 09:32 4,4 C 3,9 C 2,2 C 99 % 1000,8 hPa 0,0 l/m 0 min 0 min 34 W/m 12,9 km/h (3 Bft) 100,00 %
27.12.2021 09:34 4,4 C 3,9 C 2,2 C 99 % 1000,7 hPa 0,0 l/m 0 min 0 min 33 W/m 9,7 km/h (2 Bft) 97,87 %
27.12.2021 09:36 4,4 C 3,9 C 2,2 C 99 % 1000,8 hPa 0,0 l/m 0 min 0 min 34 W/m 12,9 km/h (3 Bft) 93,62 %
27.12.2021 09:38 4,4 C 3,9 C 2,2 C 99 % 1000,8 hPa 0,0 l/m 0 min 0 min 37 W/m 19,3 km/h (3 Bft) 95,65 %
27.12.2021 09:40 4,4 C 3,9 C 2,2 C 99 % 1000,8 hPa 0,0 l/m 0 min 0 min 39 W/m 9,7 km/h (2 Bft) 93,62 %
27.12.2021 09:42 4,4 C 3,9 C 2,2 C 99 % 1000,8 hPa 0,0 l/m 0 min 0 min 45 W/m 12,9 km/h (3 Bft) 97,87 %
27.12.2021 09:44 4,4 C 3,9 C 2,2 C 99 % 1000,7 hPa 0,0 l/m 0 min 0 min 45 W/m 12,9 km/h (3 Bft) 97,87 %
27.12.2021 09:46 4,4 C 4,4 C 2,2 C 99 % 1000,7 hPa 0,0 l/m 0 min 0 min 51 W/m 12,9 km/h (3 Bft) 97,87 %
27.12.2021 09:48 4,4 C 4,4 C 2,8 C 99 % 1000,7 hPa 0,0 l/m 0 min 0 min 52 W/m 16,1 km/h (3 Bft) 95,74 %
27.12.2021 09:50 4,4 C 4,4 C 2,8 C 99 % 1000,7 hPa 0,0 l/m 0 min 0 min 52 W/m 12,9 km/h (3 Bft) 93,48 %
27.12.2021 09:52 4,4 C 4,4 C 2,8 C 99 % 1000,7 hPa 0,0 l/m 0 min 0 min 53 W/m 12,9 km/h (3 Bft) 95,74 %
27.12.2021 09:54 4,4 C 4,4 C 2,8 C 99 % 1000,7 hPa 0,0 l/m 0 min 0 min 51 W/m 12,9 km/h (3 Bft) 93,62 %
27.12.2021 09:56 4,5 C 4,4 C 2,8 C 99 % 1000,7 hPa 0,0 l/m 0 min 0 min 59 W/m 16,1 km/h (3 Bft) 95,74 %
27.12.2021 09:58 4,5 C 4,4 C 2,8 C 99 % 1000,6 hPa 0,0 l/m 0 min 0 min 62 W/m 19,3 km/h (3 Bft) 96,00 %
27.12.2021 10:00 4,5 C 4,4 C 2,8 C 99 % 1000,6 hPa 0,0 l/m 0 min 0 min 60 W/m 19,3 km/h (3 Bft) 95,65 %
27.12.2021 10:02 4,6 C 4,4 C 2,8 C 99 % 1000,7 hPa 0,0 l/m 0 min 0 min 60 W/m 12,9 km/h (3 Bft) 95,83 %
27.12.2021 10:04 4,6 C 4,4 C 2,8 C 99 % 1000,7 hPa 0,0 l/m 0 min 0 min 54 W/m 12,9 km/h (3 Bft) 95,74 %
27.12.2021 10:06 4,6 C 4,4 C 2,8 C 99 % 1000,7 hPa 0,0 l/m 0 min 0 min 46 W/m 12,9 km/h (3 Bft) 95,74 %
27.12.2021 10:08 4,6 C 4,4 C 2,8 C 99 % 1000,6 hPa 0,0 l/m 0 min 0 min 47 W/m 16,1 km/h (3 Bft) 92,00 %
27.12.2021 10:10 4,6 C 4,4 C 2,8 C 99 % 1000,6 hPa 0,0 l/m 0 min 0 min 52 W/m 16,1 km/h (3 Bft) 95,74 %
27.12.2021 10:12 4,7 C 4,4 C 2,8 C 99 % 1000,6 hPa 0,0 l/m 0 min 0 min 49 W/m 12,9 km/h (3 Bft) 95,65 %
27.12.2021 10:14 4,7 C 4,4 C 2,8 C 99 % 1000,6 hPa 0,0 l/m 0 min 0 min 47 W/m 16,1 km/h (3 Bft) 95,74 %
27.12.2021 10:16 4,7 C 4,4 C 2,8 C 99 % 1000,6 hPa 0,0 l/m 0 min 0 min 50 W/m 12,9 km/h (3 Bft) 95,74 %
27.12.2021 10:18 4,7 C 4,4 C 2,8 C 99 % 1000,6 hPa 0,0 l/m 0 min 0 min 49 W/m 16,1 km/h (3 Bft) 95,74 %
27.12.2021 10:20 4,7 C 4,4 C 2,8 C 99 % 1000,5 hPa 0,0 l/m 0 min 0 min 50 W/m 12,9 km/h (3 Bft) 97,87 %
27.12.2021 10:22 4,8 C 4,4 C 2,8 C 99 % 1000,6 hPa 0,0 l/m 0 min 0 min 53 W/m 16,1 km/h (3 Bft) 97,87 %
27.12.2021 10:24 4,8 C 4,4 C 2,8 C 99 % 1000,6 hPa 0,0 l/m 0 min 0 min 54 W/m 12,9 km/h (3 Bft) 100,00 %
27.12.2021 10:26 4,8 C 4,4 C 2,8 C 99 % 1000,6 hPa 0,0 l/m 0 min 0 min 55 W/m 12,9 km/h (3 Bft) 95,74 %
27.12.2021 10:28 4,8 C 5,0 C 2,8 C 99 % 1000,6 hPa 0,0 l/m 0 min 0 min 54 W/m 9,7 km/h (2 Bft) 97,87 %
27.12.2021 10:30 4,9 C 5,0 C 2,8 C 99 % 1000,6 hPa 0,0 l/m 0 min 0 min 59 W/m 12,9 km/h (3 Bft) 100,00 %
27.12.2021 10:32 4,9 C 5,0 C 3,3 C 99 % 1000,6 hPa 0,0 l/m 0 min 0 min 59 W/m 12,9 km/h (3 Bft) 100,00 %
27.12.2021 10:34 4,9 C 5,0 C 3,3 C 99 % 1000,7 hPa 0,0 l/m 0 min 0 min 60 W/m 16,1 km/h (3 Bft) 95,74 %
27.12.2021 10:36 4,9 C 5,0 C 3,3 C 99 % 1000,6 hPa 0,0 l/m 0 min 0 min 63 W/m 19,3 km/h (3 Bft) 100,00 %
27.12.2021 10:38 5,0 C 5,0 C 3,3 C 99 % 1000,6 hPa 0,0 l/m 0 min 0 min 66 W/m 16,1 km/h (3 Bft) 100,00 %
27.12.2021 10:40 5,0 C 5,0 C 3,3 C 99 % 1000,6 hPa 0,0 l/m 0 min 0 min 70 W/m 16,1 km/h (3 Bft) 100,00 %
27.12.2021 10:42 5,1 C 5,0 C 3,3 C 99 % 1000,6 hPa 0,0 l/m 0 min 0 min 73 W/m 12,9 km/h (3 Bft) 100,00 %
27.12.2021 10:44 5,1 C 5,0 C 3,3 C 99 % 1000,6 hPa 0,0 l/m 0 min 0 min 86 W/m 16,1 km/h (3 Bft) 100,00 %
27.12.2021 10:46 5,1 C 5,0 C 3,3 C 99 % 1000,6 hPa 0,0 l/m 2 min 0 min 127 W/m 16,1 km/h (3 Bft) 100,00 %
27.12.2021 10:48 5,1 C 5,6 C 3,3 C 99 % 1000,5 hPa 0,0 l/m 2 min 0 min 122 W/m 16,1 km/h (3 Bft) 100,00 %
27.12.2021 10:50 5,2 C 5,6 C 3,3 C 99 % 1000,5 hPa 0,0 l/m 0 min 0 min 95 W/m 16,1 km/h (3 Bft) 97,87 %
27.12.2021 10:52 5,2 C 5,6 C 3,3 C 99 % 1000,5 hPa 0,0 l/m 0 min 0 min 90 W/m 12,9 km/h (3 Bft) 97,87 %
27.12.2021 10:54 5,2 C 5,6 C 3,3 C 99 % 1000,6 hPa 0,0 l/m 0 min 0 min 92 W/m 12,9 km/h (3 Bft) 100,00 %
27.12.2021 10:56 5,2 C 5,6 C 3,3 C 99 % 1000,5 hPa 0,0 l/m 0 min 0 min 98 W/m 12,9 km/h (3 Bft) 97,87 %
27.12.2021 10:58 5,3 C 5,6 C 3,3 C 99 % 1000,5 hPa 0,0 l/m 0 min 0 min 97 W/m 16,1 km/h (3 Bft) 100,00 %
27.12.2021 11:00 5,3 C 5,6 C 3,3 C 99 % 1000,4 hPa 0,0 l/m 0 min 0 min 90 W/m 16,1 km/h (3 Bft) 100,00 %
27.12.2021 11:02 5,3 C 5,6 C 3,3 C 99 % 1000,4 hPa 0,0 l/m 0 min 0 min 83 W/m 19,3 km/h (3 Bft) 95,65 %
27.12.2021 11:04 5,4 C 5,6 C 3,3 C 99 % 1000,5 hPa 0,0 l/m 0 min 0 min 82 W/m 12,9 km/h (3 Bft) 100,00 %
27.12.2021 11:06 5,4 C 5,6 C 3,9 C 99 % 1000,4 hPa 0,0 l/m 0 min 0 min 84 W/m 12,9 km/h (3 Bft) 97,87 %
27.12.2021 11:08 5,4 C 5,6 C 3,9 C 99 % 1000,4 hPa 0,0 l/m 0 min 0 min 84 W/m 16,1 km/h (3 Bft) 97,87 %
27.12.2021 11:10 5,4 C 5,6 C 3,9 C 99 % 1000,3 hPa 0,0 l/m 0 min 0 min 82 W/m 12,9 km/h (3 Bft) 95,74 %
27.12.2021 11:12 5,5 C 5,6 C 3,9 C 99 % 1000,3 hPa 0,0 l/m 0 min 0 min 83 W/m 12,9 km/h (3 Bft) 97,83 %
27.12.2021 11:14 5,5 C 5,6 C 3,9 C 99 % 1000,3 hPa 0,0 l/m 0 min 0 min 95 W/m 16,1 km/h (3 Bft) 97,87 %
27.12.2021 11:16 5,6 C 5,6 C 3,9 C 99 % 1000,3 hPa 0,0 l/m 0 min 0 min 94 W/m 16,1 km/h (3 Bft) 97,87 %
27.12.2021 11:18 5,6 C 5,6 C 3,9 C 99 % 1000,4 hPa 0,0 l/m 0 min 0 min 85 W/m 16,1 km/h (3 Bft) 95,74 %
27.12.2021 11:20 5,6 C 5,6 C 3,9 C 99 % 1000,4 hPa 0,0 l/m 0 min 0 min 87 W/m 16,1 km/h (3 Bft) 97,87 %
27.12.2021 11:22 5,7 C 5,6 C 3,9 C 99 % 1000,3 hPa 0,0 l/m 0 min 0 min 101 W/m 22,5 km/h (4 Bft) 97,87 %
27.12.2021 11:24 5,7 C 6,1 C 3,9 C 99 % 1000,3 hPa 0,0 l/m 0 min 0 min 117 W/m 12,9 km/h (3 Bft) 97,83 %
27.12.2021 11:26 5,7 C 6,1 C 3,9 C 99 % 1000,2 hPa 0,0 l/m 0 min 0 min 102 W/m 16,1 km/h (3 Bft) 100,00 %
27.12.2021 11:28 5,7 C 6,1 C 3,9 C 99 % 1000,2 hPa 0,0 l/m 0 min 0 min 91 W/m 16,1 km/h (3 Bft) 97,87 %
27.12.2021 11:30 5,8 C 6,1 C 3,9 C 99 % 1000,1 hPa 0,0 l/m 0 min 0 min 95 W/m 12,9 km/h (3 Bft) 95,74 %
27.12.2021 11:32 5,8 C 6,1 C 3,9 C 99 % 1000,1 hPa 0,0 l/m 0 min 0 min 88 W/m 22,5 km/h (4 Bft) 97,87 %
27.12.2021 11:34 5,8 C 5,6 C 3,9 C 99 % 1000,1 hPa 0,0 l/m 0 min 0 min 70 W/m 16,1 km/h (3 Bft) 95,65 %
27.12.2021 11:36 5,8 C 5,6 C 3,9 C 99 % 1000,1 hPa 0,0 l/m 0 min 0 min 70 W/m 16,1 km/h (3 Bft) 97,87 %
27.12.2021 11:38 5,8 C 6,1 C 3,9 C 99 % 1000,1 hPa 0,0 l/m 0 min 0 min 89 W/m 16,1 km/h (3 Bft) 97,87 %
27.12.2021 11:40 5,9 C 6,1 C 3,9 C 99 % 1000,1 hPa 0,0 l/m 0 min 0 min 141 W/m 16,1 km/h (3 Bft) 97,87 %
27.12.2021 11:42 5,9 C 6,7 C 4,4 C 99 % 1000,1 hPa 0,0 l/m 2 min 0 min 149 W/m 12,9 km/h (3 Bft) 97,87 %
27.12.2021 11:44 6,0 C 6,7 C 4,4 C 99 % 1000,1 hPa 0,0 l/m 2 min 0 min 145 W/m 16,1 km/h (3 Bft) 95,74 %
27.12.2021 11:46 6,1 C 6,7 C 4,4 C 99 % 1000,1 hPa 0,0 l/m 0 min 0 min 143 W/m 16,1 km/h (3 Bft) 97,83 %
27.12.2021 11:48 6,1 C 6,7 C 4,4 C 99 % 1000,0 hPa 0,0 l/m 0 min 0 min 127 W/m 12,9 km/h (3 Bft) 91,49 %
27.12.2021 11:50 6,1 C 6,7 C 4,4 C 99 % 1000,1 hPa 0,0 l/m 0 min 0 min 116 W/m 22,5 km/h (4 Bft) 97,87 %
27.12.2021 11:52 6,2 C 6,7 C 4,4 C 99 % 1000,0 hPa 0,0 l/m 0 min 0 min 103 W/m 16,1 km/h (3 Bft) 95,74 %
27.12.2021 11:54 6,2 C 6,1 C 4,4 C 99 % 1000,0 hPa 0,0 l/m 0 min 0 min 97 W/m 16,1 km/h (3 Bft) 93,62 %
27.12.2021 11:56 6,2 C 6,1 C 4,4 C 99 % 1000,0 hPa 0,0 l/m 0 min 0 min 99 W/m 19,3 km/h (3 Bft) 97,87 %
27.12.2021 11:58 6,3 C 6,7 C 4,4 C 99 % 1000,0 hPa 0,0 l/m 0 min 0 min 115 W/m 25,7 km/h (4 Bft) 95,65 %
27.12.2021 12:00 6,3 C 6,7 C 4,4 C 99 % 1000,0 hPa 0,0 l/m 0 min 0 min 119 W/m 22,5 km/h (4 Bft) 97,87 %
27.12.2021 12:02 6,3 C 6,7 C 4,4 C 99 % 999,9 hPa 0,0 l/m 0 min 0 min 120 W/m 29,0 km/h (5 Bft) 95,74 %
27.12.2021 12:04 6,4 C 6,7 C 4,4 C 99 % 999,9 hPa 0,0 l/m 0 min 0 min 116 W/m 16,1 km/h (3 Bft) 97,87 %
27.12.2021 12:08 6,4 C 6,7 C 4,4 C 99 % 999,9 hPa 0,0 l/m 0 min 0 min 95 W/m 22,5 km/h (4 Bft) 96,81 %
27.12.2021 12:10 6,4 C 6,1 C 4,4 C 99 % 999,9 hPa 0,0 l/m 0 min 0 min 78 W/m 22,5 km/h (4 Bft) 95,65 %
27.12.2021 12:12 6,5 C 6,1 C 4,4 C 99 % 999,9 hPa 0,0 l/m 0 min 0 min 75 W/m 19,3 km/h (3 Bft) 97,87 %
27.12.2021 12:14 6,5 C 6,1 C 4,4 C 99 % 1000,0 hPa 0,0 l/m 0 min 0 min 53 W/m 12,9 km/h (3 Bft) 97,87 %
27.12.2021 12:16 6,5 C 6,1 C 4,4 C 99 % 1000,0 hPa 0,0 l/m 0 min 0 min 40 W/m 16,1 km/h (3 Bft) 97,87 %
27.12.2021 12:18 6,5 C 6,1 C 4,4 C 99 % 1000,0 hPa 0,0 l/m 0 min 0 min 45 W/m 16,1 km/h (3 Bft) 97,87 %
27.12.2021 12:20 6,5 C 6,1 C 4,4 C 99 % 999,9 hPa 0,0 l/m 0 min 0 min 61 W/m 22,5 km/h (4 Bft) 96,23 %
27.12.2021 12:22 6,5 C 6,1 C 4,4 C 99 % 999,9 hPa 0,0 l/m 0 min 0 min 67 W/m 19,3 km/h (3 Bft) 95,74 %
27.12.2021 12:24 6,4 C 6,1 C 4,4 C 98 % 999,9 hPa 0,0 l/m 0 min 0 min 75 W/m 16,1 km/h (3 Bft) 97,87 %
27.12.2021 12:26 6,4 C 6,1 C 4,4 C 98 % 999,8 hPa 0,0 l/m 0 min 0 min 79 W/m 22,5 km/h (4 Bft) 97,87 %
27.12.2021 12:28 6,4 C 6,1 C 4,4 C 98 % 999,8 hPa 0,0 l/m 0 min 0 min 79 W/m 12,9 km/h (3 Bft) 96,00 %
27.12.2021 12:30 6,4 C 6,1 C 4,4 C 98 % 999,8 hPa 0,0 l/m 0 min 0 min 86 W/m 19,3 km/h (3 Bft) 95,74 %
27.12.2021 12:32 6,5 C 6,1 C 4,4 C 98 % 999,8 hPa 0,0 l/m 0 min 0 min 101 W/m 22,5 km/h (4 Bft) 97,22 %
27.12.2021 12:34 6,5 C 6,1 C 4,4 C 98 % 999,7 hPa 0,0 l/m 0 min 0 min 93 W/m 19,3 km/h (3 Bft) 96,61 %
27.12.2021 12:36 6,5 C 6,1 C 4,4 C 98 % 999,8 hPa 0,0 l/m 0 min 0 min 92 W/m 22,5 km/h (4 Bft) 94,29 %
27.12.2021 12:38 6,5 C 6,7 C 4,4 C 98 % 999,8 hPa 0,0 l/m 0 min 0 min 114 W/m 19,3 km/h (3 Bft) 96,23 %
27.12.2021 12:40 6,5 C 6,7 C 4,4 C 98 % 999,8 hPa 0,0 l/m 0 min 0 min 138 W/m 16,1 km/h (3 Bft) 96,00 %
27.12.2021 12:42 6,5 C 6,7 C 4,4 C 98 % 999,7 hPa 0,0 l/m 0 min 0 min 125 W/m 19,3 km/h (3 Bft) 95,92 %
27.12.2021 12:44 6,6 C 6,7 C 4,4 C 98 % 999,7 hPa 0,0 l/m 0 min 0 min 102 W/m 19,3 km/h (3 Bft) 97,14 %
27.12.2021 12:46 6,6 C 6,7 C 4,4 C 98 % 999,6 hPa 0,0 l/m 0 min 0 min 91 W/m 12,9 km/h (3 Bft) 96,23 %
27.12.2021 12:48 6,6 C 6,7 C 4,4 C 98 % 999,6 hPa 0,0 l/m 0 min 0 min 92 W/m 12,9 km/h (3 Bft) 95,74 %
27.12.2021 12:50 6,6 C 6,7 C 4,4 C 98 % 999,6 hPa 0,0 l/m 0 min 0 min 100 W/m 12,9 km/h (3 Bft) 98,00 %
27.12.2021 12:52 6,6 C 6,7 C 4,4 C 98 % 999,6 hPa 0,0 l/m 0 min 0 min 118 W/m 12,9 km/h (3 Bft) 97,87 %
27.12.2021 12:54 6,7 C 7,2 C 5,0 C 98 % 999,5 hPa 0,0 l/m 0 min 0 min 140 W/m 12,9 km/h (3 Bft) 95,92 %
27.12.2021 12:56 6,7 C 7,2 C 5,0 C 98 % 999,5 hPa 0,0 l/m 0 min 0 min 124 W/m 12,9 km/h (3 Bft) 97,87 %
27.12.2021 12:58 6,7 C 7,2 C 5,0 C 98 % 999,5 hPa 0,0 l/m 0 min 0 min 112 W/m 12,9 km/h (3 Bft) 95,74 %
27.12.2021 13:00 6,8 C 7,2 C 5,0 C 98 % 999,4 hPa 0,0 l/m 0 min 0 min 107 W/m 19,3 km/h (3 Bft) 97,14 %
27.12.2021 13:02 6,8 C 7,2 C 5,0 C 98 % 999,3 hPa 0,0 l/m 0 min 0 min 116 W/m 16,1 km/h (3 Bft) 95,74 %
27.12.2021 13:04 6,8 C 7,2 C 5,0 C 98 % 999,3 hPa 0,0 l/m 0 min 0 min 118 W/m 12,9 km/h (3 Bft) 96,23 %
27.12.2021 13:06 6,8 C 7,2 C 5,0 C 98 % 999,2 hPa 0,0 l/m 0 min 0 min 109 W/m 12,9 km/h (3 Bft) 97,87 %
27.12.2021 13:08 6,8 C 7,2 C 5,0 C 98 % 999,2 hPa 0,0 l/m 0 min 0 min 104 W/m 12,9 km/h (3 Bft) 97,96 %
27.12.2021 13:10 6,8 C 7,2 C 5,0 C 98 % 999,2 hPa 0,0 l/m 0 min 0 min 100 W/m 12,9 km/h (3 Bft) 100,00 %
27.12.2021 13:12 6,9 C 7,2 C 5,0 C 98 % 999,2 hPa 0,0 l/m 0 min 0 min 95 W/m 16,1 km/h (3 Bft) 100,00 %
27.12.2021 13:14 6,9 C 6,7 C 5,0 C 98 % 999,2 hPa 0,0 l/m 0 min 0 min 88 W/m 16,1 km/h (3 Bft) 100,00 %
27.12.2021 13:16 6,9 C 6,7 C 5,0 C 98 % 999,0 hPa 0,0 l/m 0 min 0 min 81 W/m 16,1 km/h (3 Bft) 97,96 %
27.12.2021 13:18 6,9 C 6,7 C 5,0 C 98 % 999,1 hPa 0,0 l/m 0 min 0 min 77 W/m 16,1 km/h (3 Bft) 100,00 %
27.12.2021 13:20 6,9 C 6,7 C 5,0 C 98 % 999,1 hPa 0,0 l/m 0 min 0 min 74 W/m 9,7 km/h (2 Bft) 100,00 %
27.12.2021 13:22 6,9 C 6,7 C 5,0 C 98 % 999,1 hPa 0,0 l/m 0 min 0 min 67 W/m 12,9 km/h (3 Bft) 100,00 %
27.12.2021 13:24 6,9 C 6,7 C 5,0 C 98 % 999,1 hPa 0,0 l/m 0 min 0 min 66 W/m 12,9 km/h (3 Bft) 97,87 %
27.12.2021 13:26 6,9 C 6,7 C 5,0 C 97 % 999,1 hPa 0,0 l/m 0 min 0 min 69 W/m 12,9 km/h (3 Bft) 97,87 %
27.12.2021 13:28 6,9 C 6,7 C 5,0 C 97 % 999,0 hPa 0,0 l/m 0 min 0 min 68 W/m 16,1 km/h (3 Bft) 100,00 %
27.12.2021 13:30 6,9 C 6,7 C 5,0 C 97 % 999,0 hPa 0,0 l/m 0 min 0 min 69 W/m 16,1 km/h (3 Bft) 100,00 %
27.12.2021 13:32 6,9 C 6,7 C 5,0 C 97 % 999,0 hPa 0,0 l/m 0 min 0 min 67 W/m 12,9 km/h (3 Bft) 100,00 %
27.12.2021 13:34 7,0 C 6,7 C 5,0 C 97 % 999,0 hPa 0,0 l/m 0 min 0 min 65 W/m 12,9 km/h (3 Bft) 100,00 %
27.12.2021 13:36 7,0 C 6,7 C 5,0 C 97 % 999,1 hPa 0,0 l/m 0 min 0 min 65 W/m 12,9 km/h (3 Bft) 100,00 %
27.12.2021 13:38 7,1 C 6,7 C 5,0 C 97 % 999,0 hPa 0,0 l/m 0 min 0 min 67 W/m 12,9 km/h (3 Bft) 96,23 %
27.12.2021 13:40 7,1 C 6,7 C 5,0 C 97 % 999,0 hPa 0,0 l/m 0 min 0 min 71 W/m 9,7 km/h (2 Bft) 100,00 %
27.12.2021 13:42 7,1 C 6,7 C 5,0 C 97 % 999,0 hPa 0,0 l/m 0 min 0 min 70 W/m 16,1 km/h (3 Bft) 97,96 %
27.12.2021 13:44 7,1 C 6,7 C 5,0 C 97 % 998,9 hPa 0,0 l/m 0 min 0 min 67 W/m 12,9 km/h (3 Bft) 98,00 %
27.12.2021 13:46 7,1 C 6,7 C 5,0 C 97 % 998,9 hPa 0,0 l/m 0 min 0 min 68 W/m 6,4 km/h (2 Bft) 97,87 %
27.12.2021 13:48 7,1 C 7,2 C 5,6 C 97 % 998,9 hPa 0,0 l/m 0 min 0 min 67 W/m 12,9 km/h (3 Bft) 97,87 %
27.12.2021 13:50 7,1 C 6,7 C 5,6 C 97 % 998,9 hPa 0,0 l/m 0 min 0 min 65 W/m 12,9 km/h (3 Bft) 97,14 %
27.12.2021 13:52 7,2 C 6,7 C 5,6 C 97 % 998,9 hPa 0,0 l/m 0 min 0 min 62 W/m 9,7 km/h (2 Bft) 100,00 %
27.12.2021 13:54 7,2 C 6,7 C 5,6 C 97 % 998,9 hPa 0,0 l/m 0 min 0 min 55 W/m 12,9 km/h (3 Bft) 95,92 %
27.12.2021 13:56 7,2 C 6,7 C 5,6 C 97 % 998,9 hPa 0,0 l/m 0 min 0 min 53 W/m 16,1 km/h (3 Bft) 95,74 %
27.12.2021 13:58 7,2 C 6,7 C 5,6 C 97 % 998,9 hPa 0,0 l/m 0 min 0 min 56 W/m 16,1 km/h (3 Bft) 93,62 %
27.12.2021 14:00 7,2 C 7,2 C 5,6 C 97 % 998,9 hPa 0,0 l/m 0 min 0 min 66 W/m 16,1 km/h (3 Bft) 95,74 %
27.12.2021 14:02 7,2 C 7,2 C 5,6 C 97 % 999,0 hPa 0,0 l/m 0 min 0 min 78 W/m 12,9 km/h (3 Bft) 95,92 %
27.12.2021 14:04 7,2 C 7,2 C 5,6 C 97 % 999,0 hPa 0,0 l/m 0 min 0 min 86 W/m 19,3 km/h (3 Bft) 97,22 %
27.12.2021 14:06 7,3 C 7,2 C 5,6 C 97 % 999,0 hPa 0,0 l/m 0 min 0 min 87 W/m 12,9 km/h (3 Bft) 92,31 %
27.12.2021 14:08 7,3 C 7,2 C 5,6 C 97 % 999,0 hPa 0,0 l/m 0 min 0 min 83 W/m 16,1 km/h (3 Bft) 95,74 %
27.12.2021 14:10 7,3 C 7,2 C 5,6 C 97 % 999,0 hPa 0,0 l/m 0 min 0 min 81 W/m 12,9 km/h (3 Bft) 96,00 %
27.12.2021 14:12 7,3 C 7,2 C 5,6 C 97 % 998,9 hPa 0,0 l/m 0 min 0 min 76 W/m 6,4 km/h (2 Bft) 52,38 %
27.12.2021 14:14 7,3 C 7,2 C 5,6 C 97 % 998,9 hPa 0,0 l/m 0 min 0 min 73 W/m 16,1 km/h (3 Bft) 95,45 %
27.12.2021 14:16 7,3 C 7,2 C 5,6 C 97 % 998,9 hPa 0,0 l/m 0 min 0 min 67 W/m 12,9 km/h (3 Bft) 95,92 %
27.12.2021 14:18 7,3 C 7,2 C 5,6 C 97 % 998,9 hPa 0,0 l/m 0 min 0 min 62 W/m 12,9 km/h (3 Bft) 94,29 %
27.12.2021 14:20 7,4 C 7,2 C 5,6 C 97 % 998,9 hPa 0,0 l/m 0 min 0 min 56 W/m 16,1 km/h (3 Bft) 94,34 %
27.12.2021 14:22 7,4 C 7,2 C 5,6 C 97 % 998,9 hPa 0,0 l/m 0 min 0 min 53 W/m 16,1 km/h (3 Bft) 96,00 %
27.12.2021 14:24 7,4 C 7,2 C 5,6 C 97 % 999,0 hPa 0,0 l/m 0 min 0 min 54 W/m 12,9 km/h (3 Bft) 96,00 %
27.12.2021 14:26 7,4 C 7,2 C 5,6 C 97 % 999,0 hPa 0,0 l/m 0 min 0 min 58 W/m 12,9 km/h (3 Bft) 94,29 %
27.12.2021 14:28 7,4 C 7,2 C 5,6 C 97 % 998,9 hPa 0,0 l/m 0 min 0 min 59 W/m 12,9 km/h (3 Bft) 96,23 %
27.12.2021 14:30 7,4 C 7,2 C 5,6 C 97 % 998,9 hPa 0,0 l/m 0 min 0 min 58 W/m 12,9 km/h (3 Bft) 95,92 %
27.12.2021 14:32 7,4 C 7,2 C 5,6 C 97 % 999,0 hPa 0,0 l/m 0 min 0 min 56 W/m 19,3 km/h (3 Bft) 98,00 %
27.12.2021 14:34 7,4 C 7,2 C 5,6 C 97 % 999,0 hPa 0,0 l/m 0 min 0 min 56 W/m 16,1 km/h (3 Bft) 95,74 %
27.12.2021 14:36 7,5 C 7,2 C 5,6 C 97 % 999,0 hPa 0,0 l/m 0 min 0 min 60 W/m 16,1 km/h (3 Bft) 95,74 %
27.12.2021 14:38 7,5 C 7,2 C 5,6 C 97 % 999,0 hPa 0,0 l/m 0 min 0 min 64 W/m 16,1 km/h (3 Bft) 97,83 %
27.12.2021 14:40 7,5 C 7,2 C 5,6 C 97 % 999,0 hPa 0,0 l/m 0 min 0 min 70 W/m 6,4 km/h (2 Bft) 94,29 %
27.12.2021 14:42 7,5 C 7,2 C 5,6 C 96 % 999,0 hPa 0,0 l/m 0 min 0 min 67 W/m 16,1 km/h (3 Bft) 96,23 %
27.12.2021 14:44 7,5 C 7,2 C 5,6 C 96 % 999,0 hPa 0,0 l/m 0 min 0 min 64 W/m 19,3 km/h (3 Bft) 98,00 %
27.12.2021 14:46 7,6 C 7,2 C 5,6 C 96 % 998,9 hPa 0,0 l/m 0 min 0 min 67 W/m 16,1 km/h (3 Bft) 100,00 %
27.12.2021 14:48 7,6 C 7,2 C 5,6 C 96 % 998,8 hPa 0,0 l/m 0 min 0 min 66 W/m 12,9 km/h (3 Bft) 97,87 %
27.12.2021 14:50 7,6 C 7,2 C 5,6 C 96 % 998,8 hPa 0,0 l/m 0 min 0 min 63 W/m 16,1 km/h (3 Bft) 100,00 %
27.12.2021 14:52 7,6 C 7,2 C 5,6 C 97 % 998,9 hPa 0,0 l/m 0 min 0 min 58 W/m 16,1 km/h (3 Bft) 100,00 %
27.12.2021 14:54 7,6 C 7,2 C 5,6 C 96 % 998,8 hPa 0,0 l/m 0 min 0 min 51 W/m 16,1 km/h (3 Bft) 100,00 %
27.12.2021 14:56 7,6 C 7,2 C 5,6 C 96 % 998,8 hPa 0,0 l/m 0 min 0 min 49 W/m 12,9 km/h (3 Bft) 100,00 %
27.12.2021 14:58 7,6 C 7,2 C 5,6 C 96 % 998,9 hPa 0,0 l/m 0 min 0 min 48 W/m 6,4 km/h (2 Bft) 100,00 %
27.12.2021 15:00 7,6 C 7,2 C 5,6 C 96 % 998,9 hPa 0,0 l/m 0 min 0 min 45 W/m 12,9 km/h (3 Bft) 98,11 %
27.12.2021 15:02 7,6 C 7,2 C 5,6 C 96 % 998,9 hPa 0,0 l/m 0 min 0 min 44 W/m 19,3 km/h (3 Bft) 100,00 %
27.12.2021 15:04 7,6 C 7,2 C 5,6 C 96 % 998,8 hPa 0,0 l/m 0 min 0 min 44 W/m 9,7 km/h (2 Bft) 100,00 %
27.12.2021 15:06 7,6 C 7,2 C 5,6 C 96 % 998,8 hPa 0,0 l/m 0 min 0 min 43 W/m 12,9 km/h (3 Bft) 100,00 %
27.12.2021 15:08 7,6 C 7,2 C 5,6 C 96 % 998,8 hPa 0,0 l/m 0 min 0 min 42 W/m 9,7 km/h (2 Bft) 100,00 %
27.12.2021 15:10 7,6 C 7,2 C 5,6 C 96 % 998,8 hPa 0,0 l/m 0 min 0 min 40 W/m 12,9 km/h (3 Bft) 96,00 %
27.12.2021 15:12 7,6 C 7,2 C 5,6 C 96 % 998,8 hPa 0,0 l/m 0 min 0 min 40 W/m 19,3 km/h (3 Bft) 97,14 %
27.12.2021 15:14 7,6 C 7,2 C 5,6 C 96 % 998,8 hPa 0,0 l/m 0 min 0 min 40 W/m 12,9 km/h (3 Bft) 98,11 %
27.12.2021 15:16 7,6 C 7,2 C 5,6 C 96 % 998,7 hPa 0,0 l/m 0 min 0 min 39 W/m 16,1 km/h (3 Bft) 97,83 %
27.12.2021 15:18 7,6 C 7,2 C 5,6 C 96 % 998,8 hPa 0,0 l/m 0 min 0 min 36 W/m 12,9 km/h (3 Bft) 98,00 %
27.12.2021 15:20 7,6 C 7,2 C 5,6 C 96 % 998,8 hPa 0,0 l/m 0 min 0 min 33 W/m 12,9 km/h (3 Bft) 97,87 %
27.12.2021 15:22 7,6 C 7,2 C 5,6 C 96 % 998,8 hPa 0,0 l/m 0 min 0 min 32 W/m 12,9 km/h (3 Bft) 96,00 %
27.12.2021 15:24 7,6 C 7,2 C 5,6 C 96 % 998,7 hPa 0,0 l/m 0 min 0 min 30 W/m 12,9 km/h (3 Bft) 97,83 %
27.12.2021 15:26 7,6 C 7,2 C 5,6 C 96 % 998,7 hPa 0,0 l/m 0 min 0 min 28 W/m 6,4 km/h (2 Bft) 97,87 %
27.12.2021 15:28 7,6 C 7,2 C 5,6 C 96 % 998,7 hPa 0,0 l/m 0 min 0 min 30 W/m 16,1 km/h (3 Bft) 97,87 %
27.12.2021 15:30 7,6 C 7,2 C 5,6 C 96 % 998,7 hPa 0,0 l/m 0 min 0 min 30 W/m 16,1 km/h (3 Bft) 95,65 %
27.12.2021 15:32 7,6 C 7,2 C 5,6 C 96 % 998,6 hPa 0,0 l/m 0 min 0 min 30 W/m 12,9 km/h (3 Bft) 98,46 %
27.12.2021 15:34 7,6 C 7,2 C 5,6 C 96 % 998,6 hPa 0,0 l/m 0 min 0 min 30 W/m 12,9 km/h (3 Bft) 96,00 %
27.12.2021 15:36 7,6 C 7,2 C 5,6 C 96 % 998,6 hPa 0,0 l/m 0 min 0 min 30 W/m 19,3 km/h (3 Bft) 97,96 %
27.12.2021 15:38 7,6 C 7,2 C 5,6 C 96 % 998,6 hPa 0,0 l/m 0 min 0 min 30 W/m 12,9 km/h (3 Bft) 97,22 %
27.12.2021 15:40 7,6 C 7,2 C 5,6 C 96 % 998,5 hPa 0,0 l/m 0 min 0 min 30 W/m 12,9 km/h (3 Bft) 97,83 %
27.12.2021 15:42 7,6 C 7,2 C 5,6 C 96 % 998,5 hPa 0,0 l/m 0 min 0 min 28 W/m 16,1 km/h (3 Bft) 95,74 %
27.12.2021 15:44 7,6 C 7,2 C 5,6 C 96 % 998,6 hPa 0,0 l/m 0 min 0 min 28 W/m 16,1 km/h (3 Bft) 97,87 %
27.12.2021 15:46 7,6 C 7,2 C 5,6 C 96 % 998,6 hPa 0,0 l/m 0 min 0 min 26 W/m 19,3 km/h (3 Bft) 97,87 %
27.12.2021 15:48 7,6 C 7,2 C 5,6 C 96 % 998,5 hPa 0,0 l/m 0 min 0 min 26 W/m 19,3 km/h (3 Bft) 96,23 %
27.12.2021 15:50 7,6 C 7,2 C 5,6 C 96 % 998,5 hPa 0,0 l/m 0 min 0 min 25 W/m 12,9 km/h (3 Bft) 97,96 %
27.12.2021 15:52 7,6 C 7,2 C 5,6 C 96 % 998,6 hPa 0,0 l/m 0 min 0 min 23 W/m 16,1 km/h (3 Bft) 97,87 %
27.12.2021 15:54 7,6 C 7,2 C 5,6 C 96 % 998,5 hPa 0,0 l/m 0 min 0 min 22 W/m 12,9 km/h (3 Bft) 94,74 %
27.12.2021 15:56 7,6 C 7,2 C 5,6 C 96 % 998,5 hPa 0,0 l/m 0 min 0 min 21 W/m 12,9 km/h (3 Bft) 94,34 %
27.12.2021 15:58 7,6 C 7,2 C 5,6 C 96 % 998,5 hPa 0,0 l/m 0 min 0 min 20 W/m 16,1 km/h (3 Bft) 95,74 %
27.12.2021 16:00 7,6 C 7,2 C 5,6 C 96 % 998,5 hPa 0,0 l/m 0 min 0 min 19 W/m 16,1 km/h (3 Bft) 98,00 %
27.12.2021 16:02 7,7 C 7,2 C 5,6 C 96 % 998,5 hPa 0,0 l/m 0 min 0 min 16 W/m 19,3 km/h (3 Bft) 97,83 %
27.12.2021 16:04 7,7 C 7,2 C 5,6 C 96 % 998,6 hPa 0,0 l/m 0 min 0 min 14 W/m 16,1 km/h (3 Bft) 97,87 %
27.12.2021 16:06 7,7 C 7,2 C 5,6 C 96 % 998,5 hPa 0,0 l/m 0 min 0 min 12 W/m 12,9 km/h (3 Bft) 95,74 %
27.12.2021 16:08 7,7 C 7,2 C 5,6 C 96 % 998,5 hPa 0,0 l/m 0 min 0 min 12 W/m 12,9 km/h (3 Bft) 97,37 %
27.12.2021 16:10 7,7 C 7,2 C 5,6 C 96 % 998,5 hPa 0,0 l/m 0 min 0 min 11 W/m 12,9 km/h (3 Bft) 95,74 %
27.12.2021 16:12 7,7 C 7,2 C 5,6 C 96 % 998,4 hPa 0,0 l/m 0 min 0 min 11 W/m 16,1 km/h (3 Bft) 96,23 %
27.12.2021 16:14 7,7 C 7,2 C 5,6 C 96 % 998,4 hPa 0,0 l/m 0 min 0 min 11 W/m 12,9 km/h (3 Bft) 95,65 %
27.12.2021 16:16 7,7 C 7,2 C 5,6 C 96 % 998,4 hPa 0,0 l/m 0 min 0 min 10 W/m 12,9 km/h (3 Bft) 97,87 %
27.12.2021 16:18 7,7 C 7,2 C 5,6 C 96 % 998,4 hPa 0,0 l/m 0 min 0 min 8 W/m 6,4 km/h (2 Bft) 97,87 %
27.12.2021 16:20 7,7 C 7,2 C 5,6 C 96 % 998,4 hPa 0,0 l/m 0 min 0 min 7 W/m 12,9 km/h (3 Bft) 97,87 %
27.12.2021 16:22 7,7 C 7,2 C 5,6 C 96 % 998,3 hPa 0,0 l/m 0 min 0 min 5 W/m 12,9 km/h (3 Bft) 98,00 %
27.12.2021 16:24 7,7 C 7,2 C 5,6 C 96 % 998,3 hPa 0,0 l/m 0 min 0 min 3 W/m 22,5 km/h (4 Bft) 97,83 %
27.12.2021 16:26 7,7 C 7,2 C 5,6 C 96 % 998,4 hPa 0,0 l/m 0 min 0 min 0 W/m 16,1 km/h (3 Bft) 97,37 %
27.12.2021 16:28 7,7 C 7,2 C 5,6 C 96 % 998,3 hPa 0,0 l/m 0 min 0 min 0 W/m 19,3 km/h (3 Bft) 100,00 %
27.12.2021 16:30 7,7 C 7,2 C 5,6 C 96 % 998,4 hPa 0,0 l/m 0 min 0 min 0 W/m 12,9 km/h (3 Bft) 100,00 %
27.12.2021 16:32 7,7 C 7,2 C 5,6 C 96 % 998,4 hPa 0,0 l/m 0 min 0 min 0 W/m 16,1 km/h (3 Bft) 100,00 %
27.12.2021 16:34 7,7 C 7,2 C 5,6 C 96 % 998,3 hPa 0,0 l/m 0 min 0 min 0 W/m 12,9 km/h (3 Bft) 97,87 %
27.12.2021 16:36 7,7 C 7,2 C 5,6 C 96 % 998,5 hPa 0,0 l/m 0 min 0 min 0 W/m 6,4 km/h (2 Bft) 100,00 %
27.12.2021 16:38 7,7 C 7,2 C 5,6 C 96 % 998,4 hPa 0,0 l/m 0 min 0 min 0 W/m 12,9 km/h (3 Bft) 100,00 %
27.12.2021 16:40 7,7 C 7,2 C 5,6 C 96 % 998,4 hPa 0,0 l/m 0 min 0 min 0 W/m 19,3 km/h (3 Bft) 100,00 %
27.12.2021 16:42 7,7 C 7,2 C 5,6 C 96 % 998,4 hPa 0,0 l/m 0 min 0 min 0 W/m 16,1 km/h (3 Bft) 100,00 %
27.12.2021 16:44 7,7 C 7,2 C 5,6 C 96 % 998,4 hPa 0,0 l/m 0 min 0 min 0 W/m 16,1 km/h (3 Bft) 97,87 %
27.12.2021 16:46 7,7 C 7,2 C 5,6 C 96 % 998,5 hPa 0,0 l/m 0 min 0 min 0 W/m 19,3 km/h (3 Bft) 96,36 %
27.12.2021 16:48 7,7 C 7,2 C 5,6 C 96 % 998,5 hPa 0,0 l/m 0 min 0 min 0 W/m 12,9 km/h (3 Bft) 97,83 %
27.12.2021 16:50 7,7 C 7,2 C 5,6 C 96 % 998,4 hPa 0,0 l/m 0 min 0 min 0 W/m 16,1 km/h (3 Bft) 97,87 %
27.12.2021 16:52 7,7 C 7,2 C 5,6 C 96 % 998,5 hPa 0,0 l/m 0 min 2 min 0 W/m 16,1 km/h (3 Bft) 97,87 %
27.12.2021 16:54 7,7 C 7,2 C 5,6 C 96 % 998,5 hPa 0,0 l/m 0 min 2 min 0 W/m 16,1 km/h (3 Bft) 98,00 %
27.12.2021 16:56 7,7 C 7,2 C 5,0 C 96 % 998,5 hPa 0,0 l/m 0 min 0 min 0 W/m 12,9 km/h (3 Bft) 94,44 %
27.12.2021 16:58 7,7 C 7,2 C 5,0 C 96 % 998,4 hPa 0,0 l/m 0 min 2 min 0 W/m 16,1 km/h (3 Bft) 95,74 %
27.12.2021 17:00 7,7 C 6,7 C 5,0 C 96 % 998,4 hPa 0,0 l/m 0 min 0 min 0 W/m 16,1 km/h (3 Bft) 97,87 %
27.12.2021 17:02 7,7 C 6,7 C 5,0 C 96 % 998,4 hPa 0,0 l/m 0 min 0 min 0 W/m 22,5 km/h (4 Bft) 97,83 %
27.12.2021 17:04 7,7 C 6,7 C 5,0 C 96 % 998,4 hPa 0,0 l/m 0 min 0 min 0 W/m 16,1 km/h (3 Bft) 97,87 %
27.12.2021 17:06 7,7 C 6,7 C 5,0 C 96 % 998,3 hPa 0,0 l/m 0 min 0 min 0 W/m 16,1 km/h (3 Bft) 98,18 %
27.12.2021 17:08 7,7 C 6,7 C 5,0 C 96 % 998,3 hPa 0,0 l/m 0 min 0 min 0 W/m 12,9 km/h (3 Bft) 97,87 %
27.12.2021 17:10 7,7 C 6,7 C 5,0 C 96 % 998,4 hPa 0,0 l/m 0 min 0 min 0 W/m 19,3 km/h (3 Bft) 97,87 %
27.12.2021 17:12 7,7 C 6,7 C 5,0 C 96 % 998,4 hPa 0,0 l/m 0 min 0 min 0 W/m 16,1 km/h (3 Bft) 97,96 %
27.12.2021 17:14 7,7 C 6,7 C 5,0 C 96 % 998,3 hPa 0,0 l/m 0 min 0 min 0 W/m 12,9 km/h (3 Bft) 93,62 %
27.12.2021 17:16 7,7 C 6,7 C 5,0 C 96 % 998,4 hPa 0,0 l/m 0 min 0 min 0 W/m 16,1 km/h (3 Bft) 100,00 %
27.12.2021 17:18 7,6 C 6,7 C 5,0 C 96 % 998,4 hPa 0,0 l/m 0 min 0 min 0 W/m 12,9 km/h (3 Bft) 97,87 %
27.12.2021 17:20 7,6 C 6,7 C 5,0 C 96 % 998,4 hPa 0,0 l/m 0 min 0 min 0 W/m 16,1 km/h (3 Bft) 94,55 %
27.12.2021 17:22 7,6 C 6,7 C 5,0 C 96 % 998,4 hPa 0,0 l/m 0 min 0 min 0 W/m 19,3 km/h (3 Bft) 97,96 %
27.12.2021 17:24 7,6 C 6,7 C 5,0 C 96 % 998,5 hPa 0,0 l/m 0 min 0 min 0 W/m 6,4 km/h (2 Bft) 94,44 %
27.12.2021 17:26 7,6 C 6,7 C 5,0 C 96 % 998,5 hPa 0,0 l/m 0 min 0 min 0 W/m 12,9 km/h (3 Bft) 97,87 %
27.12.2021 17:28 7,6 C 6,7 C 5,0 C 96 % 998,5 hPa 0,0 l/m 0 min 0 min 0 W/m 19,3 km/h (3 Bft) 97,87 %
27.12.2021 17:30 7,6 C 6,7 C 5,0 C 96 % 998,5 hPa 0,0 l/m 0 min 0 min 0 W/m 9,7 km/h (2 Bft) 97,87 %
27.12.2021 17:32 7,6 C 6,7 C 5,0 C 96 % 998,5 hPa 0,0 l/m 0 min 0 min 0 W/m 16,1 km/h (3 Bft) 98,18 %
27.12.2021 17:34 7,6 C 6,7 C 5,0 C 96 % 998,4 hPa 0,0 l/m 0 min 0 min 0 W/m 12,9 km/h (3 Bft) 100,00 %
27.12.2021 17:36 7,6 C 6,7 C 5,0 C 96 % 998,4 hPa 0,0 l/m 0 min 0 min 0 W/m 12,9 km/h (3 Bft) 100,00 %
27.12.2021 17:38 7,6 C 6,7 C 5,0 C 96 % 998,4 hPa 0,0 l/m 0 min 0 min 0 W/m 16,1 km/h (3 Bft) 100,00 %
27.12.2021 17:40 7,5 C 6,7 C 5,0 C 96 % 998,3 hPa 0,0 l/m 0 min 0 min 0 W/m 16,1 km/h (3 Bft) 97,87 %
27.12.2021 17:42 7,5 C 6,7 C 5,0 C 96 % 998,3 hPa 0,0 l/m 0 min 0 min 0 W/m 12,9 km/h (3 Bft) 100,00 %
27.12.2021 17:44 7,5 C 6,7 C 5,0 C 96 % 998,3 hPa 0,0 l/m 0 min 0 min 0 W/m 16,1 km/h (3 Bft) 100,00 %
27.12.2021 17:46 7,5 C 6,7 C 5,0 C 96 % 998,3 hPa 0,0 l/m 0 min 0 min 0 W/m 12,9 km/h (3 Bft) 97,87 %
27.12.2021 17:48 7,4 C 6,7 C 5,0 C 96 % 998,3 hPa 0,0 l/m 0 min 0 min 0 W/m 16,1 km/h (3 Bft) 100,00 %
27.12.2021 17:50 7,4 C 6,7 C 5,0 C 96 % 998,3 hPa 0,0 l/m 0 min 0 min 0 W/m 16,1 km/h (3 Bft) 98,18 %
27.12.2021 17:52 7,4 C 6,7 C 5,0 C 96 % 998,3 hPa 0,0 l/m 0 min 0 min 0 W/m 12,9 km/h (3 Bft) 100,00 %
27.12.2021 17:54 7,4 C 6,7 C 5,0 C 96 % 998,3 hPa 0,0 l/m 0 min 0 min 0 W/m 16,1 km/h (3 Bft) 95,74 %
27.12.2021 17:56 7,4 C 6,7 C 5,0 C 96 % 998,3 hPa 0,0 l/m 0 min 0 min 0 W/m 16,1 km/h (3 Bft) 97,96 %
27.12.2021 17:58 7,4 C 6,7 C 5,0 C 96 % 998,3 hPa 0,0 l/m 0 min 0 min 0 W/m 19,3 km/h (3 Bft) 97,87 %
27.12.2021 18:00 7,4 C 6,7 C 5,0 C 96 % 998,3 hPa 0,0 l/m 0 min 0 min 0 W/m 16,1 km/h (3 Bft) 94,74 %
27.12.2021 18:02 7,4 C 6,7 C 5,0 C 96 % 998,3 hPa 0,0 l/m 0 min 0 min 0 W/m 6,4 km/h (2 Bft) 94,00 %
27.12.2021 18:04 7,4 C 6,7 C 5,0 C 96 % 998,2 hPa 0,0 l/m 0 min 0 min 0 W/m 12,9 km/h (3 Bft) 95,74 %
27.12.2021 18:06 7,3 C 6,7 C 5,0 C 96 % 998,3 hPa 0,0 l/m 0 min 0 min 0 W/m 16,1 km/h (3 Bft) 94,00 %
27.12.2021 18:08 7,3 C 6,7 C 5,0 C 96 % 998,3 hPa 0,0 l/m 0 min 0 min 0 W/m 12,9 km/h (3 Bft) 95,74 %
27.12.2021 18:10 7,3 C 6,7 C 5,0 C 96 % 998,3 hPa 0,0 l/m 0 min 0 min 0 W/m 19,3 km/h (3 Bft) 97,87 %
27.12.2021 18:12 7,3 C 6,7 C 5,0 C 96 % 998,3 hPa 0,0 l/m 0 min 0 min 0 W/m 12,9 km/h (3 Bft) 95,74 %
27.12.2021 18:14 7,3 C 6,7 C 5,0 C 96 % 998,4 hPa 0,0 l/m 0 min 0 min 0 W/m 12,9 km/h (3 Bft) 94,29 %
27.12.2021 18:16 7,3 C 6,7 C 5,0 C 96 % 998,4 hPa 0,0 l/m 0 min 0 min 0 W/m 16,1 km/h (3 Bft) 92,73 %
27.12.2021 18:18 7,3 C 6,7 C 5,0 C 96 % 998,4 hPa 0,0 l/m 0 min 0 min 0 W/m 19,3 km/h (3 Bft) 96,00 %
27.12.2021 18:20 7,3 C 6,7 C 5,0 C 96 % 998,4 hPa 0,0 l/m 0 min 0 min 0 W/m 9,7 km/h (2 Bft) 95,74 %
27.12.2021 18:22 7,3 C 6,7 C 5,0 C 96 % 998,4 hPa 0,0 l/m 0 min 0 min 0 W/m 19,3 km/h (3 Bft) 94,44 %
27.12.2021 18:24 7,3 C 6,7 C 5,0 C 96 % 998,4 hPa 0,0 l/m 0 min 0 min 0 W/m 19,3 km/h (3 Bft) 95,65 %
27.12.2021 18:26 7,3 C 6,7 C 5,0 C 96 % 998,4 hPa 0,0 l/m 0 min 0 min 0 W/m 19,3 km/h (3 Bft) 94,55 %
27.12.2021 18:28 7,3 C 6,7 C 5,0 C 96 % 998,4 hPa 0,0 l/m 0 min 0 min 0 W/m 16,1 km/h (3 Bft) 97,87 %
27.12.2021 18:30 7,3 C 6,7 C 5,0 C 96 % 998,3 hPa 0,0 l/m 0 min 0 min 0 W/m 16,1 km/h (3 Bft) 98,00 %
27.12.2021 18:32 7,3 C 6,7 C 5,0 C 96 % 998,3 hPa 0,0 l/m 0 min 0 min 0 W/m 16,1 km/h (3 Bft) 50,00 %
27.12.2021 18:34 7,3 C 6,7 C 5,0 C 96 % 998,4 hPa 0,0 l/m 0 min 0 min 0 W/m 22,5 km/h (4 Bft) 97,87 %
27.12.2021 18:36 7,3 C 6,7 C 5,0 C 96 % 998,3 hPa 0,0 l/m 0 min 0 min 0 W/m 19,3 km/h (3 Bft) 97,87 %
27.12.2021 18:38 7,3 C 6,7 C 5,0 C 96 % 998,3 hPa 0,0 l/m 0 min 0 min 0 W/m 25,7 km/h (4 Bft) 97,87 %
27.12.2021 18:40 7,3 C 6,7 C 5,0 C 96 % 998,3 hPa 0,0 l/m 0 min 0 min 0 W/m 19,3 km/h (3 Bft) 94,29 %
27.12.2021 18:42 7,3 C 6,7 C 5,0 C 96 % 998,3 hPa 0,0 l/m 0 min 0 min 0 W/m 16,1 km/h (3 Bft) 98,18 %
27.12.2021 18:44 7,3 C 6,7 C 5,0 C 96 % 998,3 hPa 0,0 l/m 0 min 0 min 0 W/m 19,3 km/h (3 Bft) 97,96 %
27.12.2021 18:46 7,3 C 6,7 C 5,0 C 96 % 998,3 hPa 0,0 l/m 0 min 0 min 0 W/m 16,1 km/h (3 Bft) 97,92 %
27.12.2021 18:48 7,3 C 6,7 C 5,0 C 96 % 998,3 hPa 0,0 l/m 0 min 0 min 0 W/m 22,5 km/h (4 Bft) 97,14 %
27.12.2021 18:50 7,3 C 6,7 C 5,0 C 96 % 998,3 hPa 0,0 l/m 0 min 0 min 0 W/m 19,3 km/h (3 Bft) 95,74 %
27.12.2021 18:52 7,3 C 6,7 C 5,0 C 96 % 998,3 hPa 0,0 l/m 0 min 0 min 0 W/m 19,3 km/h (3 Bft) 100,00 %
27.12.2021 18:54 7,3 C 6,7 C 5,0 C 96 % 998,3 hPa 0,0 l/m 0 min 0 min 0 W/m 19,3 km/h (3 Bft) 100,00 %
27.12.2021 18:56 7,3 C 6,7 C 5,0 C 96 % 998,2 hPa 0,0 l/m 0 min 0 min 0 W/m 16,1 km/h (3 Bft) 97,96 %
27.12.2021 18:58 7,3 C 6,7 C 5,0 C 96 % 998,2 hPa 0,0 l/m 0 min 0 min 0 W/m 16,1 km/h (3 Bft) 100,00 %
27.12.2021 19:00 7,3 C 6,7 C 5,0 C 96 % 998,3 hPa 0,0 l/m 0 min 0 min 0 W/m 12,9 km/h (3 Bft) 100,00 %
27.12.2021 19:02 7,3 C 6,7 C 5,0 C 96 % 998,2 hPa 0,0 l/m 0 min 0 min 0 W/m 12,9 km/h (3 Bft) 98,00 %
27.12.2021 19:04 7,3 C 6,7 C 5,0 C 96 % 998,2 hPa 0,0 l/m 0 min 0 min 0 W/m 22,5 km/h (4 Bft) 97,37 %
27.12.2021 19:06 7,3 C 6,7 C 5,0 C 96 % 998,2 hPa 0,0 l/m 0 min 0 min 0 W/m 16,1 km/h (3 Bft) 97,87 %
27.12.2021 19:08 7,3 C 6,7 C 5,0 C 96 % 998,2 hPa 0,0 l/m 0 min 0 min 0 W/m 16,1 km/h (3 Bft) 100,00 %
27.12.2021 19:10 7,3 C 6,7 C 5,0 C 96 % 998,2 hPa 0,0 l/m 0 min 0 min 0 W/m 19,3 km/h (3 Bft) 93,48 %
27.12.2021 19:12 7,3 C 6,7 C 5,0 C 96 % 998,2 hPa 0,0 l/m 0 min 0 min 0 W/m 16,1 km/h (3 Bft) 100,00 %
27.12.2021 19:14 7,3 C 6,7 C 5,0 C 96 % 998,2 hPa 0,0 l/m 0 min 0 min 0 W/m 12,9 km/h (3 Bft) 100,00 %
27.12.2021 19:16 7,3 C 6,7 C 5,0 C 96 % 998,2 hPa 0,0 l/m 0 min 0 min 0 W/m 19,3 km/h (3 Bft) 100,00 %
27.12.2021 19:18 7,3 C 6,7 C 5,0 C 96 % 998,2 hPa 0,0 l/m 0 min 0 min 0 W/m 19,3 km/h (3 Bft) 100,00 %
27.12.2021 19:20 7,3 C 6,7 C 5,0 C 96 % 998,2 hPa 0,0 l/m 0 min 0 min 0 W/m 19,3 km/h (3 Bft) 98,15 %
27.12.2021 19:22 7,3 C 6,7 C 5,0 C 96 % 998,1 hPa 0,0 l/m 0 min 0 min 0 W/m 19,3 km/h (3 Bft) 97,37 %
27.12.2021 19:24 7,3 C 6,7 C 5,0 C 96 % 998,1 hPa 0,0 l/m 0 min 0 min 0 W/m 16,1 km/h (3 Bft) 100,00 %
27.12.2021 19:26 7,3 C 6,7 C 5,0 C 96 % 998,1 hPa 0,0 l/m 0 min 0 min 0 W/m 16,1 km/h (3 Bft) 100,00 %
27.12.2021 19:28 7,3 C 6,7 C 5,0 C 96 % 998,1 hPa 0,0 l/m 0 min 0 min 0 W/m 19,3 km/h (3 Bft) 97,87 %
27.12.2021 19:30 7,3 C 6,7 C 5,0 C 96 % 998,1 hPa 0,0 l/m 0 min 0 min 0 W/m 16,1 km/h (3 Bft) 97,87 %
27.12.2021 19:32 7,3 C 6,7 C 5,0 C 96 % 998,1 hPa 0,0 l/m 0 min 0 min 0 W/m 16,1 km/h (3 Bft) 96,30 %
27.12.2021 19:34 7,3 C 6,7 C 5,0 C 96 % 998,1 hPa 0,0 l/m 0 min 0 min 0 W/m 19,3 km/h (3 Bft) 97,37 %
27.12.2021 19:36 7,3 C 6,7 C 5,0 C 96 % 998,1 hPa 0,0 l/m 0 min 0 min 0 W/m 16,1 km/h (3 Bft) 95,83 %
27.12.2021 19:38 7,3 C 6,7 C 5,0 C 96 % 998,1 hPa 0,0 l/m 0 min 0 min 0 W/m 19,3 km/h (3 Bft) 95,74 %
27.12.2021 19:40 7,3 C 6,7 C 5,0 C 96 % 998,1 hPa 0,0 l/m 0 min 0 min 0 W/m 22,5 km/h (4 Bft) 96,30 %
27.12.2021 19:42 7,3 C 6,7 C 5,0 C 96 % 998,1 hPa 0,0 l/m 0 min 0 min 0 W/m 19,3 km/h (3 Bft) 97,44 %
27.12.2021 19:44 7,3 C 6,7 C 5,0 C 96 % 998,1 hPa 0,0 l/m 0 min 0 min 0 W/m 16,1 km/h (3 Bft) 95,74 %
27.12.2021 19:46 7,3 C 6,7 C 5,0 C 96 % 998,2 hPa 0,0 l/m 0 min 0 min 0 W/m 19,3 km/h (3 Bft) 97,87 %
27.12.2021 19:48 7,3 C 6,7 C 5,0 C 96 % 998,2 hPa 0,0 l/m 0 min 0 min 0 W/m 19,3 km/h (3 Bft) 95,74 %
27.12.2021 19:50 7,3 C 6,7 C 5,0 C 96 % 998,1 hPa 0,0 l/m 0 min 0 min 0 W/m 22,5 km/h (4 Bft) 96,36 %
27.12.2021 19:52 7,4 C 6,7 C 5,0 C 96 % 998,1 hPa 0,0 l/m 0 min 0 min 0 W/m 19,3 km/h (3 Bft) 97,37 %
27.12.2021 19:54 7,4 C 6,7 C 5,0 C 96 % 998,1 hPa 0,0 l/m 0 min 0 min 0 W/m 25,7 km/h (4 Bft) 95,83 %
27.12.2021 19:56 7,4 C 6,7 C 5,0 C 96 % 998,1 hPa 0,0 l/m 0 min 0 min 0 W/m 19,3 km/h (3 Bft) 95,65 %
27.12.2021 19:58 7,4 C 6,7 C 5,0 C 96 % 998,1 hPa 0,0 l/m 0 min 0 min 0 W/m 25,7 km/h (4 Bft) 94,00 %
27.12.2021 20:00 7,4 C 6,7 C 5,6 C 96 % 998,1 hPa 0,0 l/m 0 min 0 min 0 W/m 25,7 km/h (4 Bft) 95,74 %
27.12.2021 20:02 7,4 C 6,7 C 5,0 C 96 % 998,1 hPa 0,0 l/m 0 min 0 min 0 W/m 12,9 km/h (3 Bft) 97,37 %
27.12.2021 20:04 7,4 C 6,7 C 5,0 C 96 % 998,1 hPa 0,0 l/m 0 min 0 min 0 W/m 22,5 km/h (4 Bft) 94,12 %
27.12.2021 20:06 7,4 C 6,7 C 5,0 C 96 % 998,1 hPa 0,0 l/m 0 min 0 min 0 W/m 22,5 km/h (4 Bft) 94,34 %
27.12.2021 20:08 7,4 C 6,7 C 5,0 C 96 % 998,1 hPa 0,0 l/m 0 min 0 min 0 W/m 16,1 km/h (3 Bft) 96,00 %
27.12.2021 20:10 7,4 C 6,7 C 5,6 C 96 % 998,0 hPa 0,0 l/m 0 min 0 min 0 W/m 19,3 km/h (3 Bft) 95,74 %
27.12.2021 20:12 7,4 C 6,7 C 5,6 C 96 % 998,1 hPa 0,0 l/m 0 min 0 min 0 W/m 16,1 km/h (3 Bft) 97,87 %
27.12.2021 20:14 7,4 C 6,7 C 5,6 C 96 % 998,0 hPa 0,0 l/m 0 min 0 min 0 W/m 16,1 km/h (3 Bft) 97,30 %
27.12.2021 20:16 7,4 C 6,7 C 5,6 C 96 % 998,0 hPa 0,0 l/m 0 min 0 min 0 W/m 16,1 km/h (3 Bft) 97,87 %
27.12.2021 20:18 7,4 C 6,7 C 5,0 C 96 % 998,0 hPa 0,0 l/m 0 min 0 min 0 W/m 16,1 km/h (3 Bft) 100,00 %
27.12.2021 20:20 7,4 C 6,7 C 5,6 C 96 % 998,0 hPa 0,0 l/m 0 min 0 min 0 W/m 19,3 km/h (3 Bft) 98,00 %
27.12.2021 20:22 7,4 C 6,7 C 5,6 C 96 % 998,0 hPa 0,0 l/m 0 min 0 min 0 W/m 25,7 km/h (4 Bft) 97,87 %
27.12.2021 20:24 7,4 C 6,7 C 5,6 C 96 % 998,0 hPa 0,0 l/m 0 min 0 min 0 W/m 16,1 km/h (3 Bft) 100,00 %
27.12.2021 20:26 7,4 C 6,7 C 5,6 C 96 % 998,0 hPa 0,0 l/m 0 min 0 min 0 W/m 19,3 km/h (3 Bft) 100,00 %
27.12.2021 20:28 7,4 C 7,2 C 5,6 C 96 % 997,9 hPa 0,0 l/m 0 min 0 min 0 W/m 22,5 km/h (4 Bft) 100,00 %
27.12.2021 20:30 7,4 C 7,2 C 5,6 C 96 % 998,0 hPa 0,0 l/m 0 min 0 min 0 W/m 19,3 km/h (3 Bft) 100,00 %
27.12.2021 20:32 7,5 C 7,2 C 5,6 C 96 % 998,0 hPa 0,0 l/m 0 min 0 min 0 W/m 25,7 km/h (4 Bft) 98,00 %
27.12.2021 20:34 7,5 C 7,2 C 5,6 C 96 % 998,0 hPa 0,0 l/m 0 min 0 min 0 W/m 19,3 km/h (3 Bft) 100,00 %
27.12.2021 20:36 7,5 C 7,2 C 5,6 C 96 % 998,0 hPa 0,0 l/m 0 min 0 min 0 W/m 16,1 km/h (3 Bft) 100,00 %
27.12.2021 20:38 7,5 C 7,2 C 5,6 C 96 % 998,0 hPa 0,0 l/m 0 min 0 min 0 W/m 22,5 km/h (4 Bft) 100,00 %
27.12.2021 20:40 7,5 C 7,2 C 5,6 C 96 % 998,0 hPa 0,0 l/m 0 min 0 min 0 W/m 16,1 km/h (3 Bft) 97,87 %
27.12.2021 20:42 7,5 C 7,2 C 5,6 C 96 % 998,0 hPa 0,0 l/m 0 min 0 min 0 W/m 22,5 km/h (4 Bft) 100,00 %
27.12.2021 20:44 7,6 C 7,2 C 5,6 C 96 % 997,9 hPa 0,0 l/m 0 min 0 min 0 W/m 22,5 km/h (4 Bft) 100,00 %
27.12.2021 20:46 7,5 C 7,2 C 5,6 C 96 % 997,9 hPa 0,0 l/m 0 min 0 min 0 W/m 22,5 km/h (4 Bft) 100,00 %
27.12.2021 20:48 7,6 C 7,2 C 5,6 C 96 % 997,9 hPa 0,0 l/m 0 min 0 min 0 W/m 22,5 km/h (4 Bft) 100,00 %
27.12.2021 20:50 7,6 C 7,2 C 5,6 C 96 % 998,0 hPa 0,0 l/m 0 min 0 min 0 W/m 19,3 km/h (3 Bft) 100,00 %
27.12.2021 20:52 7,6 C 7,2 C 5,6 C 96 % 997,9 hPa 0,0 l/m 0 min 0 min 0 W/m 22,5 km/h (4 Bft) 97,44 %
27.12.2021 20:54 7,6 C 7,2 C 5,6 C 96 % 998,0 hPa 0,0 l/m 0 min 0 min 0 W/m 16,1 km/h (3 Bft) 100,00 %
27.12.2021 20:56 7,6 C 7,2 C 5,6 C 96 % 997,9 hPa 0,0 l/m 0 min 0 min 0 W/m 16,1 km/h (3 Bft) 97,87 %
27.12.2021 20:58 7,6 C 7,2 C 5,6 C 96 % 997,9 hPa 0,0 l/m 0 min 0 min 0 W/m 16,1 km/h (3 Bft) 98,00 %
27.12.2021 21:00 7,6 C 7,2 C 5,6 C 96 % 997,9 hPa 0,0 l/m 0 min 0 min 0 W/m 22,5 km/h (4 Bft) 97,62 %
27.12.2021 21:02 7,6 C 7,2 C 5,6 C 96 % 997,9 hPa 0,0 l/m 0 min 0 min 0 W/m 16,1 km/h (3 Bft) 96,00 %
27.12.2021 21:04 7,6 C 6,7 C 5,6 C 96 % 997,9 hPa 0,0 l/m 0 min 0 min 0 W/m 19,3 km/h (3 Bft) 97,67 %
27.12.2021 21:06 7,6 C 6,7 C 5,0 C 96 % 998,0 hPa 0,0 l/m 0 min 0 min 0 W/m 19,3 km/h (3 Bft) 98,11 %
27.12.2021 21:08 7,6 C 6,7 C 5,0 C 96 % 997,9 hPa 0,0 l/m 0 min 2 min 0 W/m 22,5 km/h (4 Bft) 95,74 %
27.12.2021 21:10 7,6 C 6,7 C 5,0 C 96 % 997,9 hPa 0,0 l/m 0 min 2 min 0 W/m 16,1 km/h (3 Bft) 97,87 %
27.12.2021 21:12 7,6 C 6,7 C 5,0 C 96 % 997,8 hPa 0,0 l/m 0 min 0 min 0 W/m 16,1 km/h (3 Bft) 98,00 %
27.12.2021 21:14 7,6 C 6,7 C 5,0 C 96 % 997,8 hPa 0,0 l/m 0 min 0 min 0 W/m 22,5 km/h (4 Bft) 97,83 %
27.12.2021 21:16 7,6 C 6,7 C 5,0 C 96 % 997,8 hPa 0,0 l/m 0 min 0 min 0 W/m 6,4 km/h (2 Bft) 97,30 %
27.12.2021 21:18 7,5 C 6,7 C 5,0 C 96 % 997,8 hPa 0,0 l/m 0 min 2 min 0 W/m 16,1 km/h (3 Bft) 95,74 %
27.12.2021 21:20 7,5 C 6,7 C 5,0 C 96 % 997,9 hPa 0,0 l/m 0 min 2 min 0 W/m 16,1 km/h (3 Bft) 97,87 %
27.12.2021 21:22 7,5 C 6,7 C 5,0 C 96 % 997,8 hPa 0,0 l/m 0 min 2 min 0 W/m 19,3 km/h (3 Bft) 97,87 %
27.12.2021 21:24 7,5 C 6,7 C 5,0 C 96 % 997,9 hPa 0,2 l/m 0 min 2 min 0 W/m 16,1 km/h (3 Bft) 98,15 %
27.12.2021 21:26 7,5 C 6,1 C 5,0 C 96 % 997,8 hPa 0,0 l/m 0 min 2 min 0 W/m 12,9 km/h (3 Bft) 95,74 %
27.12.2021 21:28 7,5 C 6,1 C 5,0 C 96 % 997,8 hPa 0,0 l/m 0 min 0 min 0 W/m 12,9 km/h (3 Bft) 97,96 %
27.12.2021 21:30 7,4 C 6,1 C 5,0 C 96 % 997,9 hPa 0,0 l/m 0 min 0 min 0 W/m 12,9 km/h (3 Bft) 97,87 %
27.12.2021 21:32 7,4 C 6,1 C 5,0 C 96 % 997,8 hPa 0,0 l/m 0 min 0 min 0 W/m 16,1 km/h (3 Bft) 97,87 %
27.12.2021 21:34 7,4 C 6,1 C 5,0 C 96 % 997,8 hPa 0,0 l/m 0 min 0 min 0 W/m 22,5 km/h (4 Bft) 97,87 %
27.12.2021 21:36 7,4 C 6,7 C 5,0 C 96 % 997,8 hPa 0,0 l/m 0 min 0 min 0 W/m 19,3 km/h (3 Bft) 94,59 %
27.12.2021 21:38 7,4 C 6,7 C 5,0 C 96 % 997,8 hPa 0,0 l/m 0 min 0 min 0 W/m 16,1 km/h (3 Bft) 97,87 %
27.12.2021 21:40 7,4 C 6,7 C 5,0 C 96 % 997,8 hPa 0,0 l/m 0 min 0 min 0 W/m 12,9 km/h (3 Bft) 97,83 %
27.12.2021 21:42 7,4 C 6,7 C 5,0 C 96 % 997,8 hPa 0,0 l/m 0 min 0 min 0 W/m 19,3 km/h (3 Bft) 98,15 %
27.12.2021 21:44 7,4 C 6,7 C 5,0 C 96 % 997,7 hPa 0,0 l/m 0 min 0 min 0 W/m 16,1 km/h (3 Bft) 98,00 %
27.12.2021 21:46 7,4 C 6,7 C 5,0 C 97 % 997,7 hPa 0,0 l/m 0 min 0 min 0 W/m 12,9 km/h (3 Bft) 95,74 %
27.12.2021 21:48 7,4 C 6,7 C 5,0 C 97 % 997,8 hPa 0,0 l/m 0 min 0 min 0 W/m 19,3 km/h (3 Bft) 100,00 %
27.12.2021 21:50 7,4 C 6,7 C 5,0 C 97 % 997,8 hPa 0,0 l/m 0 min 0 min 0 W/m 12,9 km/h (3 Bft) 97,87 %
27.12.2021 21:52 7,4 C 6,7 C 5,0 C 97 % 997,8 hPa 0,0 l/m 0 min 0 min 0 W/m 22,5 km/h (4 Bft) 97,83 %
27.12.2021 21:54 7,4 C 6,7 C 5,0 C 97 % 997,8 hPa 0,0 l/m 0 min 0 min 0 W/m 22,5 km/h (4 Bft) 96,30 %
27.12.2021 21:56 7,4 C 6,7 C 5,0 C 97 % 997,8 hPa 0,0 l/m 0 min 0 min 0 W/m 16,1 km/h (3 Bft) 94,00 %
27.12.2021 21:58 7,4 C 6,7 C 5,0 C 97 % 997,8 hPa 0,0 l/m 0 min 2 min 0 W/m 22,5 km/h (4 Bft) 97,87 %
27.12.2021 22:00 7,4 C 6,7 C 5,0 C 97 % 997,7 hPa 0,0 l/m 0 min 2 min 0 W/m 19,3 km/h (3 Bft) 95,65 %
27.12.2021 22:02 7,4 C 6,7 C 5,0 C 97 % 997,8 hPa 0,0 l/m 0 min 2 min 0 W/m 22,5 km/h (4 Bft) 95,74 %
27.12.2021 22:04 7,4 C 6,7 C 5,0 C 97 % 997,8 hPa 0,0 l/m 0 min 0 min 0 W/m 16,1 km/h (3 Bft) 97,30 %
27.12.2021 22:06 7,4 C 6,7 C 5,0 C 97 % 997,8 hPa 0,0 l/m 0 min 2 min 0 W/m 16,1 km/h (3 Bft) 95,74 %
27.12.2021 22:08 7,4 C 6,7 C 5,0 C 97 % 997,8 hPa 0,2 l/m 0 min 0 min 0 W/m 16,1 km/h (3 Bft) 95,74 %
27.12.2021 22:10 7,4 C 6,7 C 5,0 C 97 % 997,8 hPa 0,0 l/m 0 min 2 min 0 W/m 16,1 km/h (3 Bft) 95,74 %
27.12.2021 22:12 7,4 C 6,7 C 5,0 C 97 % 997,8 hPa 0,0 l/m 0 min 2 min 0 W/m 16,1 km/h (3 Bft) 92,45 %
27.12.2021 22:14 7,4 C 6,7 C 5,0 C 97 % 997,8 hPa 0,0 l/m 0 min 2 min 0 W/m 19,3 km/h (3 Bft) 94,00 %
27.12.2021 22:16 7,4 C 6,7 C 5,0 C 97 % 997,8 hPa 0,0 l/m 0 min 2 min 0 W/m 16,1 km/h (3 Bft) 95,74 %
27.12.2021 22:18 7,4 C 6,7 C 5,0 C 97 % 997,8 hPa 0,2 l/m 0 min 2 min 0 W/m 19,3 km/h (3 Bft) 97,30 %
27.12.2021 22:20 7,4 C 6,7 C 5,0 C 97 % 997,7 hPa 0,0 l/m 0 min 0 min 0 W/m 12,9 km/h (3 Bft) 97,87 %
27.12.2021 22:22 7,4 C 6,7 C 5,0 C 97 % 997,7 hPa 0,0 l/m 0 min 0 min 0 W/m 16,1 km/h (3 Bft) 95,74 %
27.12.2021 22:24 7,4 C 6,7 C 5,0 C 97 % 997,7 hPa 0,0 l/m 0 min 2 min 0 W/m 16,1 km/h (3 Bft) 96,23 %
27.12.2021 22:26 7,4 C 6,7 C 5,0 C 97 % 997,7 hPa 0,0 l/m 0 min 2 min 0 W/m 22,5 km/h (4 Bft) 98,00 %
27.12.2021 22:28 7,4 C 6,7 C 5,0 C 97 % 997,7 hPa 0,0 l/m 0 min 2 min 0 W/m 16,1 km/h (3 Bft) 97,30 %
27.12.2021 22:30 7,4 C 6,7 C 5,0 C 97 % 997,6 hPa 0,0 l/m 0 min 2 min 0 W/m 19,3 km/h (3 Bft) 97,87 %
27.12.2021 22:32 7,3 C 6,7 C 5,0 C 97 % 997,6 hPa 0,0 l/m 0 min 0 min 0 W/m 19,3 km/h (3 Bft) 100,00 %
27.12.2021 22:34 7,4 C 6,7 C 5,0 C 97 % 997,6 hPa 0,0 l/m 0 min 0 min 0 W/m 16,1 km/h (3 Bft) 97,87 %
27.12.2021 22:36 7,4 C 6,7 C 5,0 C 97 % 997,7 hPa 0,0 l/m 0 min 0 min 0 W/m 19,3 km/h (3 Bft) 95,92 %
27.12.2021 22:38 7,4 C 6,7 C 5,0 C 98 % 997,7 hPa 0,0 l/m 0 min 0 min 0 W/m 19,3 km/h (3 Bft) 95,65 %
27.12.2021 22:40 7,3 C 6,7 C 5,0 C 98 % 997,6 hPa 0,0 l/m 0 min 0 min 0 W/m 16,1 km/h (3 Bft) 98,15 %
27.12.2021 22:42 7,3 C 6,7 C 5,0 C 98 % 997,7 hPa 0,0 l/m 0 min 0 min 0 W/m 22,5 km/h (4 Bft) 97,37 %
27.12.2021 22:44 7,3 C 6,7 C 5,0 C 98 % 997,6 hPa 0,0 l/m 0 min 0 min 0 W/m 22,5 km/h (4 Bft) 97,96 %
27.12.2021 22:46 7,3 C 6,7 C 5,0 C 98 % 997,6 hPa 0,0 l/m 0 min 0 min 0 W/m 19,3 km/h (3 Bft) 97,87 %
27.12.2021 22:48 7,3 C 6,7 C 5,0 C 98 % 997,6 hPa 0,0 l/m 0 min 0 min 0 W/m 12,9 km/h (3 Bft) 97,83 %
27.12.2021 22:50 7,3 C 6,7 C 5,0 C 98 % 997,6 hPa 0,0 l/m 0 min 0 min 0 W/m 19,3 km/h (3 Bft) 95,74 %
27.12.2021 22:52 7,3 C 6,7 C 5,0 C 98 % 997,5 hPa 0,0 l/m 0 min 0 min 0 W/m 16,1 km/h (3 Bft) 100,00 %
27.12.2021 22:54 7,3 C 6,7 C 5,0 C 98 % 997,5 hPa 0,0 l/m 0 min 0 min 0 W/m 12,9 km/h (3 Bft) 100,00 %
27.12.2021 22:56 7,3 C 6,7 C 5,0 C 98 % 997,4 hPa 0,0 l/m 0 min 0 min 0 W/m 12,9 km/h (3 Bft) 100,00 %
27.12.2021 22:58 7,3 C 6,7 C 5,0 C 98 % 997,4 hPa 0,0 l/m 0 min 0 min 0 W/m 12,9 km/h (3 Bft) 100,00 %
27.12.2021 23:00 7,3 C 6,7 C 5,0 C 98 % 997,4 hPa 0,0 l/m 0 min 0 min 0 W/m 16,1 km/h (3 Bft) 97,83 %
27.12.2021 23:02 7,3 C 6,1 C 5,0 C 98 % 997,4 hPa 0,0 l/m 0 min 0 min 0 W/m 16,1 km/h (3 Bft) 100,00 %
27.12.2021 23:04 7,3 C 6,1 C 5,0 C 98 % 997,4 hPa 0,0 l/m 0 min 0 min 0 W/m 16,1 km/h (3 Bft) 98,15 %
27.12.2021 23:06 7,3 C 6,1 C 5,0 C 98 % 997,4 hPa 0,0 l/m 0 min 0 min 0 W/m 19,3 km/h (3 Bft) 100,00 %
27.12.2021 23:08 7,3 C 6,1 C 5,0 C 98 % 997,4 hPa 0,0 l/m 0 min 0 min 0 W/m 12,9 km/h (3 Bft) 100,00 %
27.12.2021 23:10 7,2 C 6,1 C 5,0 C 98 % 997,3 hPa 0,2 l/m 0 min 0 min 0 W/m 16,1 km/h (3 Bft) 100,00 %
27.12.2021 23:12 7,2 C 6,1 C 5,0 C 98 % 997,3 hPa 0,0 l/m 0 min 0 min 0 W/m 16,1 km/h (3 Bft) 95,92 %
27.12.2021 23:14 7,2 C 6,1 C 5,0 C 98 % 997,3 hPa 0,0 l/m 0 min 0 min 0 W/m 16,1 km/h (3 Bft) 100,00 %
27.12.2021 23:16 7,2 C 6,1 C 5,0 C 98 % 997,2 hPa 0,0 l/m 0 min 0 min 0 W/m 12,9 km/h (3 Bft) 100,00 %
27.12.2021 23:18 7,2 C 6,1 C 5,0 C 98 % 997,2 hPa 0,0 l/m 0 min 0 min 0 W/m 16,1 km/h (3 Bft) 100,00 %
27.12.2021 23:20 7,2 C 6,1 C 5,0 C 98 % 997,2 hPa 0,0 l/m 0 min 0 min 0 W/m 22,5 km/h (4 Bft) 100,00 %
27.12.2021 23:22 7,2 C 6,1 C 5,0 C 98 % 997,3 hPa 0,0 l/m 0 min 0 min 0 W/m 16,1 km/h (3 Bft) 100,00 %
27.12.2021 23:24 7,1 C 6,1 C 5,0 C 98 % 997,2 hPa 0,0 l/m 0 min 0 min 0 W/m 19,3 km/h (3 Bft) 100,00 %
27.12.2021 23:26 7,1 C 6,1 C 5,0 C 98 % 997,3 hPa 0,0 l/m 0 min 0 min 0 W/m 19,3 km/h (3 Bft) 100,00 %
27.12.2021 23:28 7,1 C 6,1 C 5,0 C 98 % 997,2 hPa 0,0 l/m 0 min 0 min 0 W/m 16,1 km/h (3 Bft) 100,00 %
27.12.2021 23:30 7,1 C 6,1 C 5,0 C 98 % 997,2 hPa 0,0 l/m 0 min 0 min 0 W/m 22,5 km/h (4 Bft) 100,00 %
27.12.2021 23:32 7,1 C 6,1 C 5,0 C 98 % 997,2 hPa 0,0 l/m 0 min 0 min 0 W/m 12,9 km/h (3 Bft) 100,00 %
27.12.2021 23:34 7,1 C 6,1 C 5,0 C 98 % 997,2 hPa 0,0 l/m 0 min 0 min 0 W/m 22,5 km/h (4 Bft) 100,00 %
27.12.2021 23:36 7,1 C 6,1 C 5,0 C 98 % 997,2 hPa 0,0 l/m 0 min 0 min 0 W/m 16,1 km/h (3 Bft) 100,00 %
27.12.2021 23:38 7,0 C 6,1 C 5,0 C 98 % 997,2 hPa 0,0 l/m 0 min 0 min 0 W/m 16,1 km/h (3 Bft) 98,00 %
27.12.2021 23:40 7,0 C 6,1 C 5,0 C 98 % 997,3 hPa 0,0 l/m 0 min 0 min 0 W/m 16,1 km/h (3 Bft) 100,00 %
27.12.2021 23:42 6,9 C 6,1 C 4,4 C 98 % 997,2 hPa 0,0 l/m 0 min 0 min 0 W/m 12,9 km/h (3 Bft) 100,00 %
27.12.2021 23:44 6,9 C 6,1 C 4,4 C 98 % 997,2 hPa 0,0 l/m 0 min 0 min 0 W/m 12,9 km/h (3 Bft) 98,18 %
27.12.2021 23:46 6,9 C 6,1 C 4,4 C 98 % 997,2 hPa 0,0 l/m 0 min 0 min 0 W/m 16,1 km/h (3 Bft) 97,96 %
27.12.2021 23:48 6,9 C 6,1 C 4,4 C 98 % 997,1 hPa 0,0 l/m 0 min 0 min 0 W/m 12,9 km/h (3 Bft) 97,92 %
27.12.2021 23:50 6,9 C 6,1 C 4,4 C 98 % 997,1 hPa 0,0 l/m 0 min 0 min 0 W/m 19,3 km/h (3 Bft) 97,14 %
27.12.2021 23:52 6,9 C 6,1 C 4,4 C 98 % 997,2 hPa 0,0 l/m 0 min 0 min 0 W/m 16,1 km/h (3 Bft) 95,74 %
27.12.2021 23:54 6,8 C 6,1 C 4,4 C 98 % 997,2 hPa 0,0 l/m 0 min 0 min 0 W/m 16,1 km/h (3 Bft) 95,74 %
27.12.2021 23:56 6,8 C 6,1 C 4,4 C 98 % 997,1 hPa 0,0 l/m 0 min 0 min 0 W/m 12,9 km/h (3 Bft) 96,36 %
27.12.2021 23:58 6,8 C 6,1 C 4,4 C 98 % 997,1 hPa 0,0 l/m 0 min 0 min 0 W/m 16,1 km/h (3 Bft) 95,92 %
_ Min-Zeit 01:42 00:00 00:00 00:00 23:48 - - - - 00:24 18:32
Minimum _ 3,4 C 2,8 C 0,6 C 94 % 997,1 hPa - - - - 6,4 km/h (2 Bft) 50,00 %
_ Max-Zeit 16:02 12:54 13:48 07:16 00:00 01:10 10:46 01:36 11:42 12:02 00:02
Maximum _ 7,7 C 7,2 C 5,6 C 99 % 1003,7 hPa 0,2 l/m 2 min 2 min 149 W/m 29,0 km/h
S-SO (5 Bft)
100,00 %
Durchschnitt _ 5,7 C 5,2 C 3,5 C 97 % 1000,1 hPa #1,8 l/m #8 min. #2:10 h 62 W/m 15,5 km/h (3 Bft) 97,07 %
© 2021 W. Hausmann